DW7984 Weather Reports


Display with metric or nautical units.
time (UTC)temp
F
wind
direction
speed
MPH
gust
MPH
rain 1hr
in
rain 24hr
in
rain mn
in
humidity
%
barometer
mb
20260905154440 89 244 4.0 10.0 0.00 0.00 0.00 44 1056.3
20260905154419 89 189 4.0 10.0 0.00 0.00 0.00 44 1056.3
20260905154103 89 207 4.0 10.0 0.00 0.00 0.00 44 1056.2
20260905154003 89 234 4.0 11.0 0.00 0.00 0.00 44 1056.3
20260905153945 89 135 5.0 11.0 0.00 0.00 0.00 44 1056.3
20260905153933 89 137 5.0 11.0 0.00 0.00 0.00 44 1056.2
20260905153923 89 239 5.0 11.0 0.00 0.00 0.00 44 1056.3
20260905153558 89 177 5.0 11.0 0.00 0.00 0.00 42 1056.2
20260905153458 89 144 6.0 16.0 0.00 0.00 0.00 42 1056.1
20260905153358 89 107 6.0 16.0 0.00 0.00 0.00 43 1056.2
20260905153302 89 139 6.0 16.0 0.00 0.00 0.00 44 1056.2
20260905153214 90 186 6.0 16.0 0.00 0.00 0.00 44 1056.2
20260905153158 90 187 6.0 16.0 0.00 0.00 0.00 44 1056.2
20260905153058 90 139 6.0 16.0 0.00 0.00 0.00 43 1056.3
20260905152958 90 165 6.0 16.0 0.00 0.00 0.00 43 1056.3
20260905152858 90 121 6.0 16.0 0.00 0.00 0.00 45 1056.3
20260905152758 90 196 6.0 16.0 0.00 0.00 0.00 45 1056.2
20260905152707 90 241 6.0 16.0 0.00 0.00 0.00 45 1056.3
20260905152658 90 241 6.0 16.0 0.00 0.00 0.00 45 1056.3
20260905152625 90 134 6.0 16.0 0.00 0.00 0.00 45 1056.3
20260905152617 90 188 5.0 15.0 0.00 0.00 0.00 46 1056.2
20260905152603 90 164 5.0 14.0 0.00 0.00 0.00 47 1056.2
20260905152330 90 222 5.0 14.0 0.00 0.00 0.00 47 1056.3
20260905152323 90 210 5.0 14.0 0.00 0.00 0.00 47 1056.3
20260905151958 90 214 5.0 12.0 0.00 0.00 0.00 46 1056.3
20260905151859 90 181 5.0 12.0 0.00 0.00 0.00 46 1056.3
20260905151800 90 158 5.0 13.0 0.00 0.00 0.00 47 1056.3
20260905151710 90 177 5.0 13.0 0.00 0.00 0.00 47 1056.3
20260905151701 90 174 5.0 13.0 0.00 0.00 0.00 47 1056.3
20260905151600 90 209 5.0 13.0 0.00 0.00 0.00 46 1056.3
20260905151458 90 201 5.0 13.0 0.00 0.00 0.00 47 1056.3
20260905151359 90 181 5.0 13.0 0.00 0.00 0.00 49 1056.3
20260905151258 90 172 5.0 13.0 0.00 0.00 0.00 49 1056.3
20260905151208 90 204 5.0 13.0 0.00 0.00 0.00 49 1056.3
20260905151158 90 207 5.0 13.0 0.00 0.00 0.00 49 1056.3
20260905151129 90 188 5.0 13.0 0.00 0.00 0.00 49 1056.4
20260905151121 90 216 4.0 13.0 0.00 0.00 0.00 50 1056.3
20260905150754 91 202 5.0 12.0 0.00 0.00 0.00 52 1056.3
20260905150704 91 148 5.0 12.0 0.00 0.00 0.00 52 1056.3
20260905150654 91 189 5.0 12.0 0.00 0.00 0.00 52 1056.3
20260905150554 91 164 5.0 13.0 0.00 0.00 0.00 52 1056.3
20260905150535 91 172 5.0 14.0 0.00 0.00 0.00 51 1056.3
20260905150523 91 179 6.0 14.0 0.00 0.00 0.00 51 1056.3
20260905150235 91 184 6.0 14.0 0.00 0.00 0.00 50 1056.3
20260905150228 91 179 6.0 14.0 0.00 0.00 0.00 50 1056.3
20260905150218 91 206 6.0 14.0 0.00 0.00 0.00 50 1056.3
20260905150202 91 203 6.0 14.0 0.00 0.00 0.00 50 1056.4
20260905145927 91 169 6.0 14.0 0.00 0.00 0.00 50 1056.4
20260905145654 91 242 6.0 14.0 0.00 0.00 0.00 51 1056.4
20260905145554 91 244 6.0 14.0 0.00 0.00 0.00 50 1056.4
20260905145454 91 192 5.0 13.0 0.00 0.00 0.00 50 1056.5
20260905145354 92 181 5.0 13.0 0.00 0.00 0.00 50 1056.4
20260905145254 92 219 5.0 13.0 0.00 0.00 0.00 50 1056.4
20260905145204 92 183 5.0 13.0 0.00 0.00 0.00 50 1056.4
20260905145154 92 151 5.0 13.0 0.00 0.00 0.00 50 1056.4
20260905145054 92 183 5.0 13.0 0.00 0.00 0.00 50 1056.4
20260905144957 92 228 5.0 13.0 0.00 0.00 0.00 50 1056.4
20260905144854 92 139 5.0 13.0 0.00 0.00 0.00 50 1056.4
20260905144835 92 228 5.0 12.0 0.00 0.00 0.00 50 1056.4
20260905144824 92 191 5.0 12.0 0.00 0.00 0.00 51 1056.4
20260905144819 92 188 5.0 12.0 0.00 0.00 0.00 51 1056.4
20260905144454 92 172 5.0 12.0 0.00 0.00 0.00 52 1056.5
20260905144346 92 172 5.0 12.0 0.00 0.00 0.00 51 1056.4
20260905144322 92 172 5.0 12.0 0.00 0.00 0.00 50 1056.4
20260905144313 92 194 5.0 12.0 0.00 0.00 0.00 50 1056.5
20260905144306 92 216 5.0 12.0 0.00 0.00 0.00 50 1056.5
20260905143946 92 214 5.0 12.0 0.00 0.00 0.00 50 1056.5
20260905143847 92 229 6.0 12.0 0.00 0.00 0.00 49 1056.4
20260905143745 92 177 6.0 12.0 0.00 0.00 0.00 49 1056.5
20260905143704 92 164 6.0 14.0 0.00 0.00 0.00 49 1056.5
20260905143646 92 167 6.0 14.0 0.00 0.00 0.00 49 1056.5
20260905143546 92 101 6.0 14.0 0.00 0.00 0.00 49 1056.5
20260905143446 92 205 6.0 14.0 0.00 0.00 0.00 49 1056.5
20260905143346 92 272 7.0 14.0 0.00 0.00 0.00 49 1056.5
20260905143248 92 202 6.0 14.0 0.00 0.00 0.00 49 1056.5
20260905143203 92 270 7.0 14.0 0.00 0.00 0.00 49 1056.6
20260905143146 92 198 7.0 14.0 0.00 0.00 0.00 49 1056.6
20260905143045 92 203 6.0 14.0 0.00 0.00 0.00 49 1056.6
20260905142946 92 231 6.0 14.0 0.00 0.00 0.00 48 1056.5
20260905142846 92 164 6.0 14.0 0.00 0.00 0.00 49 1056.5
20260905142746 92 231 6.0 14.0 0.00 0.00 0.00 49 1056.6
20260905142702 92 223 7.0 13.0 0.00 0.00 0.00 49 1056.5
20260905142646 92 219 7.0 14.0 0.00 0.00 0.00 49 1056.5
20260905142546 92 218 7.0 14.0 0.00 0.00 0.00 49 1056.5
20260905142448 92 162 7.0 14.0 0.00 0.00 0.00 48 1056.5
20260905142437 92 181 6.0 14.0 0.00 0.00 0.00 48 1056.5
20260905142424 92 261 7.0 14.0 0.00 0.00 0.00 47 1056.4
20260905142145 93 192 7.0 14.0 0.00 0.00 0.00 48 1056.5
20260905142046 93 156 7.0 14.0 0.00 0.00 0.00 48 1056.5
20260905141945 93 172 7.0 14.0 0.00 0.00 0.00 47 1056.6
20260905141847 93 195 6.0 14.0 0.00 0.00 0.00 46 1056.6
20260905141746 93 147 6.0 14.0 0.00 0.00 0.00 46 1056.6
20260905141703 93 198 6.0 14.0 0.00 0.00 0.00 45 1056.6
20260905141646 93 193 6.0 13.0 0.00 0.00 0.00 45 1056.6
20260905141546 93 189 6.0 13.0 0.00 0.00 0.00 45 1056.5
20260905141446 93 174 6.0 13.0 0.00 0.00 0.00 44 1056.5
20260905141346 93 251 6.0 13.0 0.00 0.00 0.00 44 1056.6
20260905141321 93 173 6.0 13.0 0.00 0.00 0.00 44 1056.6
20260905141311 93 161 6.0 13.0 0.00 0.00 0.00 43 1056.6
20260905141304 93 201 6.0 13.0 0.00 0.00 0.00 43 1056.6
20260905141019 93 177 6.0 13.0 0.00 0.00 0.00 43 1056.6
20260905141006 94 249 6.0 13.0 0.00 0.00 0.00 42 1056.6
20260905140702 94 206 6.0 13.0 0.00 0.00 0.00 42 1056.6
20260905140639 94 229 6.0 13.0 0.00 0.00 0.00 42 1056.6
20260905140532 94 179 6.0 13.0 0.00 0.00 0.00 42 1056.6
20260905140434 94 218 6.0 13.0 0.00 0.00 0.00 42 1056.6
20260905140331 94 211 6.0 11.0 0.00 0.00 0.00 42 1056.5
20260905140232 94 124 6.0 11.0 0.00 0.00 0.00 41 1056.6
20260905140205 94 138 6.0 11.0 0.00 0.00 0.00 41 1056.6
20260905140131 94 153 6.0 11.0 0.00 0.00 0.00 41 1056.6
20260905140109 94 238 6.0 12.0 0.00 0.00 0.00 41 1056.6
20260905140058 94 193 6.0 12.0 0.00 0.00 0.00 41 1056.6
20260905135731 94 239 6.0 14.0 0.00 0.00 0.00 41 1056.6
20260905135703 94 247 6.0 14.0 0.00 0.00 0.00 41 1056.6
20260905135632 94 211 6.0 14.0 0.00 0.00 0.00 41 1056.6
20260905135532 94 137 6.0 14.0 0.00 0.00 0.00 41 1056.6
20260905135434 94 187 6.0 14.0 0.00 0.00 0.00 41 1056.6
20260905135420 94 200 6.0 14.0 0.00 0.00 0.00 41 1056.6
20260905135411 94 118 6.0 14.0 0.00 0.00 0.00 41 1056.6
20260905135352 94 186 6.0 14.0 0.00 0.00 0.00 41 1056.6
20260905135032 94 260 6.0 14.0 0.00 0.00 0.00 41 1056.7
20260905134933 95 222 6.0 14.0 0.00 0.00 0.00 40 1056.7
20260905134831 95 212 6.0 14.0 0.00 0.00 0.00 41 1056.8
20260905134815 95 185 6.0 14.0 0.00 0.00 0.00 41 1056.6
20260905134804 95 145 7.0 14.0 0.00 0.00 0.00 40 1056.7
20260905134759 95 132 7.0 14.0 0.00 0.00 0.00 40 1056.7
20260905134433 95 199 7.0 14.0 0.00 0.00 0.00 40 1056.7
20260905134332 95 179 7.0 14.0 0.00 0.00 0.00 40 1056.7
20260905134232 95 203 7.0 14.0 0.00 0.00 0.00 40 1056.7
20260905134202 95 183 6.0 14.0 0.00 0.00 0.00 40 1056.7
20260905134131 95 208 6.0 14.0 0.00 0.00 0.00 40 1056.7
20260905134103 95 193 6.0 14.0 0.00 0.00 0.00 40 1056.7
20260905134055 95 185 6.0 14.0 0.00 0.00 0.00 40 1056.8
20260905133731 95 210 6.0 13.0 0.00 0.00 0.00 40 1056.8
20260905133703 95 184 5.0 13.0 0.00 0.00 0.00 41 1056.7
20260905133631 95 198 5.0 13.0 0.00 0.00 0.00 41 1056.7
20260905133531 95 205 5.0 13.0 0.00 0.00 0.00 41 1056.6
20260905133433 95 245 5.0 13.0 0.00 0.00 0.00 41 1056.6
20260905133332 95 207 6.0 13.0 0.00 0.00 0.00 41 1056.6
20260905133231 95 185 5.0 13.0 0.00 0.00 0.00 41 1056.6
20260905133206 95 205 5.0 13.0 0.00 0.00 0.00 41 1056.7
20260905133126 95 169 5.0 13.0 0.00 0.00 0.00 41 1056.7
20260905133026 95 136 5.0 13.0 0.00 0.00 0.00 41 1056.6
20260905132926 95 209 5.0 13.0 0.00 0.00 0.00 42 1056.6
20260905132826 95 227 5.0 13.0 0.00 0.00 0.00 42 1056.6
20260905132731 95 166 5.0 10.0 0.00 0.00 0.00 42 1056.6
20260905132722 95 125 6.0 10.0 0.00 0.00 0.00 42 1056.5
20260905132715 95 222 6.0 11.0 0.00 0.00 0.00 42 1056.5
20260905132701 95 222 6.0 11.0 0.00 0.00 0.00 41 1056.6
20260905132436 95 104 5.0 11.0 0.00 0.00 0.00 41 1056.5
20260905132422 95 199 5.0 11.0 0.00 0.00 0.00 42 1056.6
20260905132151 95 186 6.0 15.0 0.00 0.00 0.00 41 1056.6
20260905132144 95 157 6.0 15.0 0.00 0.00 0.00 41 1056.6
20260905131820 95 141 6.0 15.0 0.00 0.00 0.00 41 1056.6
20260905131718 95 195 6.0 15.0 0.00 0.00 0.00 42 1056.6
20260905131701 95 255 6.0 15.0 0.00 0.00 0.00 42 1056.6
20260905131618 95 212 6.0 15.0 0.00 0.00 0.00 42 1056.6
20260905131518 95 237 6.0 15.0 0.00 0.00 0.00 42 1056.7
20260905131415 95 211 6.0 15.0 0.00 0.00 0.00 42 1056.6
20260905131315 95 214 6.0 15.0 0.00 0.00 0.00 41 1056.6
20260905131215 95 225 6.0 15.0 0.00 0.00 0.00 41 1056.7
20260905131204 95 214 7.0 17.0 0.00 0.00 0.00 41 1056.6
20260905131116 95 218 7.0 17.0 0.00 0.00 0.00 41 1056.6
20260905131015 95 228 7.0 17.0 0.00 0.00 0.00 41 1056.7
20260905130912 95 216 6.0 17.0 0.00 0.00 0.00 41 1056.8
20260905130819 95 210 6.0 17.0 0.00 0.00 0.00 42 1056.7
20260905130705 95 158 6.0 17.0 0.00 0.00 0.00 42 1056.7
20260905130611 95 183 6.0 17.0 0.00 0.00 0.00 42 1056.7
20260905130509 95 210 6.0 17.0 0.00 0.00 0.00 42 1056.7
20260905130406 95 97 6.0 17.0 0.00 0.00 0.00 42 1056.7
20260905130307 95 222 6.0 17.0 0.00 0.00 0.00 41 1056.7
20260905130212 95 272 6.0 14.0 0.00 0.00 0.00 41 1056.8
20260905130206 95 216 5.0 14.0 0.00 0.00 0.00 41 1056.8
20260905130105 95 212 5.0 12.0 0.00 0.00 0.00 42 1056.7
20260905130003 95 233 5.0 11.0 0.00 0.00 0.00 42 1056.6
20260905125904 95 149 5.0 11.0 0.00 0.00 0.00 42 1056.7
20260905125807 95 158 5.0 11.0 0.00 0.00 0.00 42 1056.6
20260905125740 95 126 5.0 11.0 0.00 0.00 0.00 41 1056.6
20260905125731 95 145 5.0 11.0 0.00 0.00 0.00 41 1056.6
20260905125420 95 113 4.0 10.0 0.00 0.00 0.00 41 1056.6
20260905125411 95 88 4.0 10.0 0.00 0.00 0.00 41 1056.6
20260905125351 95 175 4.0 10.0 0.00 0.00 0.00 40 1056.6
20260905125122 96 108 4.0 11.0 0.00 0.00 0.00 41 1056.7
20260905125107 96 179 4.0 11.0 0.00 0.00 0.00 41 1056.6
20260905125057 95 131 4.0 11.0 0.00 0.00 0.00 41 1056.6
20260905124829 96 129 5.0 11.0 0.00 0.00 0.00 41 1056.6
20260905124504 96 93 5.0 11.0 0.00 0.00 0.00 41 1056.6
20260905124404 95 109 5.0 11.0 0.00 0.00 0.00 41 1056.7
20260905124304 95 178 6.0 12.0 0.00 0.00 0.00 41 1056.8
20260905124206 95 190 5.0 12.0 0.00 0.00 0.00 41 1056.8
20260905124136 95 184 5.0 12.0 0.00 0.00 0.00 41 1056.8
20260905124128 95 218 5.0 12.0 0.00 0.00 0.00 40 1056.7
20260905123805 95 213 5.0 12.0 0.00 0.00 0.00 41 1056.7
20260905123729 95 230 4.0 12.0 0.00 0.00 0.00 42 1056.8
20260905123719 95 112 4.0 12.0 0.00 0.00 0.00 41 1056.7
20260905123707 95 148 4.0 12.0 0.00 0.00 0.00 41 1056.7
20260905123651 96 96 4.0 12.0 0.00 0.00 0.00 40 1056.8
20260905123417 96 114 3.0 8.0 0.00 0.00 0.00 41 1056.7
20260905123103 96 112 3.0 8.0 0.00 0.00 0.00 41 1056.8
20260905123004 96 180 3.0 8.0 0.00 0.00 0.00 41 1056.8
20260905122903 96 230 3.0 8.0 0.00 0.00 0.00 41 1056.8
20260905122805 96 218 3.0 8.0 0.00 0.00 0.00 41 1056.8
20260905122705 96 103 3.0 8.0 0.00 0.00 0.00 41 1056.8
20260905122603 96 170 3.0 8.0 0.00 0.00 0.00 42 1056.9
20260905122505 96 196 3.0 8.0 0.00 0.00 0.00 42 1056.9
20260905122404 96 102 3.0 8.0 0.00 0.00 0.00 42 1056.9
20260905122306 95 174 3.0 8.0 0.00 0.00 0.00 42 1056.8
20260905122205 95 149 3.0 8.0 0.00 0.00 0.00 42 1056.9
20260905122103 95 121 3.0 7.0 0.00 0.00 0.00 43 1056.8
20260905122004 95 153 3.0 6.0 0.00 0.00 0.00 43 1056.8
20260905121903 95 185 3.0 6.0 0.00 0.00 0.00 42 1056.9
20260905121759 95 157 3.0 10.0 0.00 0.00 0.00 42 1056.8
20260905121711 95 157 4.0 10.0 0.00 0.00 0.00 42 1056.8
20260905121700 95 173 4.0 10.0 0.00 0.00 0.00 42 1056.8
20260905121600 95 197 4.0 10.0 0.00 0.00 0.00 42 1056.9
20260905121505 95 157 4.0 10.0 0.00 0.00 0.00 42 1056.9
20260905121359 96 181 4.0 10.0 0.00 0.00 0.00 42 1056.9
20260905121256 96 180 4.0 10.0 0.00 0.00 0.00 42 1056.9
20260905121208 96 148 4.0 10.0 0.00 0.00 0.00 43 1056.9
20260905121156 96 148 4.0 10.0 0.00 0.00 0.00 43 1056.9
20260905121056 96 172 5.0 10.0 0.00 0.00 0.00 43 1056.8
20260905120955 96 93 5.0 10.0 0.00 0.00 0.00 43 1056.9
20260905120854 96 99 5.0 10.0 0.00 0.00 0.00 42 1056.9
20260905120824 96 45 5.0 10.0 0.00 0.00 0.00 42 1056.9
20260905120814 96 158 4.0 10.0 0.00 0.00 0.00 42 1056.9
20260905120808 96 174 4.0 10.0 0.00 0.00 0.00 42 1056.9
20260905120444 96 226 4.0 10.0 0.00 0.00 0.00 41 1056.9
20260905120343 96 199 4.0 10.0 0.00 0.00 0.00 40 1056.9
20260905120322 96 197 4.0 10.0 0.00 0.00 0.00 40 1056.9
20260905120312 96 209 4.0 10.0 0.00 0.00 0.00 39 1056.9
20260905120306 96 227 4.0 10.0 0.00 0.00 0.00 39 1056.9
20260905115939 96 190 4.0 10.0 0.00 0.00 0.00 40 1057.0
20260905115837 96 167 4.0 10.0 0.00 0.00 0.00 39 1056.9
20260905115818 96 170 4.0 10.0 0.00 0.00 0.00 39 1057.0
20260905115800 96 166 4.0 10.0 0.00 0.00 0.00 39 1057.0
20260905115433 96 90 4.0 10.0 0.00 0.00 0.00 38 1056.9
20260905115352 96 100 3.0 10.0 0.00 0.00 0.00 37 1057.0
20260905115340 96 96 3.0 10.0 0.00 0.00 0.00 37 1057.0
20260905115330 96 99 3.0 10.0 0.00 0.00 0.00 37 1057.0
20260905115320 96 97 3.0 10.0 0.00 0.00 0.00 37 1057.0
20260905115312 96 95 2.0 10.0 0.00 0.00 0.00 38 1057.0
20260905115306 96 189 2.0 6.0 0.00 0.00 0.00 37 1057.0
20260905115251 96 80 2.0 6.0 0.00 0.00 0.00 37 1057.0
20260905115241 96 63 2.0 6.0 0.00 0.00 0.00 37 1057.0
20260905115232 96 60 3.0 6.0 0.00 0.00 0.00 37 1057.0
20260905115225 96 59 3.0 6.0 0.00 0.00 0.00 37 1057.0
20260905115217 96 59 3.0 7.0 0.00 0.00 0.00 37 1057.0
20260905115209 96 89 3.0 7.0 0.00 0.00 0.00 37 1057.1
20260905115200 95 219 3.0 8.0 0.00 0.00 0.00 38 1057.1
20260905115150 95 219 3.0 8.0 0.00 0.00 0.00 37 1057.1
20260905115141 95 220 4.0 8.0 0.00 0.00 0.00 37 1057.1
20260905115134 95 222 4.0 8.0 0.00 0.00 0.00 37 1057.1
20260905115122 95 216 4.0 8.0 0.00 0.00 0.00 37 1057.1
20260905115114 95 213 4.0 8.0 0.00 0.00 0.00 37 1057.2
20260905114838 95 262 3.0 8.0 0.00 0.00 0.00 38 1057.2
20260905114829 95 195 4.0 8.0 0.00 0.00 0.00 38 1057.2
20260905114824 95 208 4.0 8.0 0.00 0.00 0.00 39 1057.2
20260905114816 95 222 4.0 8.0 0.00 0.00 0.00 39 1057.2
20260905114805 94 244 4.0 8.0 0.00 0.00 0.00 39 1057.1
20260905114755 94 231 4.0 10.0 0.00 0.00 0.00 39 1057.2
20260905114315 94 165 4.0 11.0 0.00 0.00 0.00 39 1057.2
20260905114307 94 124 4.0 11.0 0.00 0.00 0.00 39 1057.1
20260905114259 94 106 4.0 11.0 0.00 0.00 0.00 39 1057.1
20260905114031 94 122 4.0 11.0 0.00 0.00 0.00 39 1057.2
20260905114015 94 122 4.0 11.0 0.00 0.00 0.00 39 1057.2
20260905114005 94 202 4.0 11.0 0.00 0.00 0.00 39 1057.2
20260905113953 94 96 4.0 11.0 0.00 0.00 0.00 40 1057.2
20260905113944 94 84 4.0 11.0 0.00 0.00 0.00 39 1057.1
20260905113714 94 103 3.0 8.0 0.00 0.00 0.00 39 1057.2
20260905113446 94 192 3.0 8.0 0.00 0.00 0.00 40 1057.2
20260905113438 94 149 3.0 8.0 0.00 0.00 0.00 40 1057.2
20260905113429 94 144 4.0 8.0 0.00 0.00 0.00 39 1057.2
20260905113419 94 77 4.0 8.0 0.00 0.00 0.00 39 1057.2
20260905113407 94 77 4.0 8.0 0.00 0.00 0.00 40 1057.2
20260905113402 94 75 4.0 8.0 0.00 0.00 0.00 40 1057.2
20260905113354 94 104 3.0 8.0 0.00 0.00 0.00 39 1057.2
20260905113346 94 62 3.0 8.0 0.00 0.00 0.00 39 1057.2
20260905113118 94 117 4.0 9.0 0.00 0.00 0.00 39 1057.1
20260905112152 94 91 3.0 9.0 0.00 0.00 0.00 39 1057.3
20260905112142 94 78 3.0 9.0 0.00 0.00 0.00 40 1057.3
20260905112133 94 89 3.0 9.0 0.00 0.00 0.00 40 1057.3
20260905111432 94 91 2.0 9.0 0.00 0.00 0.00 40 1057.4
20260905111409 94 81 2.0 8.0 0.00 0.00 0.00 41 1057.4
20260905110924 94 131 2.0 8.0 0.00 0.00 0.00 40 1057.4
20260905110911 94 131 3.0 8.0 0.00 0.00 0.00 40 1057.4
20260905105945 93 166 2.0 7.0 0.00 0.00 0.00 40 1057.4
20260905105936 93 167 3.0 8.0 0.00 0.00 0.00 40 1057.3
20260905105926 93 167 3.0 8.0 0.00 0.00 0.00 40 1057.4
20260905105651 93 151 4.0 8.0 0.00 0.00 0.00 40 1057.4
20260905105426 93 174 4.0 8.0 0.00 0.00 0.00 42 1057.4
20260905105418 93 157 4.0 8.0 0.00 0.00 0.00 41 1057.4
20260905104926 93 104 4.0 8.0 0.00 0.00 0.00 42 1057.4
20260905104659 93 93 4.0 8.0 0.00 0.00 0.00 41 1057.4
20260905104428 93 73 4.0 8.0 0.00 0.00 0.00 41 1057.4
20260905104412 93 99 4.0 8.0 0.00 0.00 0.00 41 1057.4
20260905104103 93 120 4.0 8.0 0.00 0.00 0.00 41 1057.4
20260905104003 93 114 3.0 8.0 0.00 0.00 0.00 41 1057.4
20260905103903 92 135 3.0 8.0 0.00 0.00 0.00 41 1057.4
20260905103805 92 172 3.0 8.0 0.00 0.00 0.00 42 1057.4
20260905103704 92 198 4.0 8.0 0.00 0.00 0.00 42 1057.4
20260905103653 92 197 4.0 8.0 0.00 0.00 0.00 41 1057.4
20260905103604 92 103 4.0 8.0 0.00 0.00 0.00 41 1057.4
20260905103504 92 81 3.0 8.0 0.00 0.00 0.00 41 1057.4
20260905103436 92 182 3.0 8.0 0.00 0.00 0.00 41 1057.4
20260905103428 92 141 3.0 8.0 0.00 0.00 0.00 41 1057.4
20260905103152 92 131 3.0 8.0 0.00 0.00 0.00 41 1057.4
20260905103104 92 52 3.0 8.0 0.00 0.00 0.00 42 1057.4
20260905103006 92 151 3.0 8.0 0.00 0.00 0.00 42 1057.4
20260905102904 92 190 3.0 8.0 0.00 0.00 0.00 41 1057.4
20260905102806 92 158 3.0 8.0 0.00 0.00 0.00 41 1057.4
20260905102742 92 193 3.0 9.0 0.00 0.00 0.00 43 1057.4
20260905102733 92 195 3.0 9.0 0.00 0.00 0.00 43 1057.4
20260905102726 92 210 3.0 9.0 0.00 0.00 0.00 42 1057.4
20260905102404 92 64 4.0 10.0 0.00 0.00 0.00 41 1057.4
20260905102306 92 63 4.0 10.0 0.00 0.00 0.00 42 1057.4
20260905102203 92 97 4.0 10.0 0.00 0.00 0.00 42 1057.4
20260905102151 92 145 4.0 10.0 0.00 0.00 0.00 42 1057.4
20260905102104 92 147 4.0 10.0 0.00 0.00 0.00 41 1057.4
20260905102004 92 147 4.0 10.0 0.00 0.00 0.00 41 1057.4
20260905101904 92 104 4.0 10.0 0.00 0.00 0.00 42 1057.4
20260905101804 92 110 4.0 10.0 0.00 0.00 0.00 41 1057.4
20260905101704 92 139 4.0 10.0 0.00 0.00 0.00 42 1057.4
20260905101651 92 141 4.0 10.0 0.00 0.00 0.00 42 1057.4
20260905101604 92 109 4.0 10.0 0.00 0.00 0.00 41 1057.4
20260905101457 92 70 3.0 10.0 0.00 0.00 0.00 41 1057.4
20260905101400 92 125 3.0 8.0 0.00 0.00 0.00 41 1057.4
20260905101258 92 145 4.0 7.0 0.00 0.00 0.00 42 1057.4
20260905101151 92 156 4.0 8.0 0.00 0.00 0.00 40 1057.4
20260905101057 92 140 4.0 8.0 0.00 0.00 0.00 41 1057.4
20260905100954 92 134 4.0 8.0 0.00 0.00 0.00 41 1057.4
20260905100851 91 104 4.0 8.0 0.00 0.00 0.00 42 1057.4
20260905100752 91 97 4.0 8.0 0.00 0.00 0.00 42 1057.4
20260905100659 91 240 4.0 8.0 0.00 0.00 0.00 41 1057.4
20260905100648 91 239 4.0 8.0 0.00 0.00 0.00 41 1057.4
20260905100552 91 122 4.0 8.0 0.00 0.00 0.00 41 1057.4
20260905100445 91 122 4.0 8.0 0.00 0.00 0.00 40 1057.4
20260905100347 92 123 4.0 8.0 0.00 0.00 0.00 41 1057.5
20260905100245 92 114 4.0 8.0 0.00 0.00 0.00 41 1057.5
20260905100154 92 106 4.0 8.0 0.00 0.00 0.00 42 1057.5
20260905100143 92 100 4.0 8.0 0.00 0.00 0.00 42 1057.5
20260905100044 92 100 4.0 8.0 0.00 0.00 0.00 42 1057.5
20260905095944 92 73 4.0 8.0 0.00 0.00 0.00 40 1057.5
20260905095844 92 45 4.0 8.0 0.00 0.00 0.00 41 1057.4
20260905095743 92 125 4.0 8.0 0.00 0.00 0.00 42 1057.5
20260905095651 92 122 3.0 8.0 0.00 0.00 0.00 42 1057.5
20260905095641 92 95 3.0 8.0 0.00 0.00 0.00 42 1057.5
20260905095542 92 145 4.0 8.0 0.00 0.00 0.00 42 1057.4
20260905095440 91 134 4.0 9.0 0.00 0.00 0.00 41 1057.4
20260905095338 92 134 4.0 9.0 0.00 0.00 0.00 42 1057.4
20260905095236 91 148 4.0 9.0 0.00 0.00 0.00 42 1057.4
20260905095146 91 141 4.0 9.0 0.00 0.00 0.00 42 1057.4
20260905095136 91 125 4.0 9.0 0.00 0.00 0.00 41 1057.4
20260905095052 91 115 4.0 9.0 0.00 0.00 0.00 41 1057.4
20260905095043 91 87 4.0 9.0 0.00 0.00 0.00 41 1057.4
20260905095028 91 77 4.0 9.0 0.00 0.00 0.00 41 1057.4
20260905094756 91 77 5.0 10.0 0.00 0.00 0.00 40 1057.4
20260905094751 91 78 5.0 10.0 0.00 0.00 0.00 40 1057.4
20260905094459 91 89 4.0 10.0 0.00 0.00 0.00 41 1057.4
20260905094448 91 153 5.0 10.0 0.00 0.00 0.00 41 1057.4
20260905094439 91 141 5.0 10.0 0.00 0.00 0.00 41 1057.4
20260905094428 91 142 5.0 10.0 0.00 0.00 0.00 41 1057.4
20260905094419 91 141 5.0 10.0 0.00 0.00 0.00 41 1057.4
20260905094406 91 104 5.0 10.0 0.00 0.00 0.00 42 1057.4
20260905094358 91 70 5.0 10.0 0.00 0.00 0.00 42 1057.4
20260905094130 91 97 5.0 10.0 0.00 0.00 0.00 41 1057.4
20260905094120 91 85 5.0 10.0 0.00 0.00 0.00 41 1057.4
20260905094107 91 119 5.0 10.0 0.00 0.00 0.00 41 1057.4
20260905093842 91 101 5.0 10.0 0.00 0.00 0.00 41 1057.5
20260905093131 91 112 4.0 10.0 0.00 0.00 0.00 41 1057.4
20260905093031 91 107 4.0 10.0 0.00 0.00 0.00 40 1057.4
20260905093003 91 87 4.0 10.0 0.00 0.00 0.00 42 1057.4
20260905092953 91 87 4.0 10.0 0.00 0.00 0.00 42 1057.4
20260905092944 91 144 4.0 10.0 0.00 0.00 0.00 41 1057.4
20260905092927 91 144 4.0 10.0 0.00 0.00 0.00 42 1057.4
20260905092919 91 110 4.0 10.0 0.00 0.00 0.00 42 1057.4
20260905092650 91 70 3.0 10.0 0.00 0.00 0.00 42 1057.3
20260905092640 91 88 3.0 10.0 0.00 0.00 0.00 42 1057.4
20260905092620 90 79 3.0 9.0 0.00 0.00 0.00 44 1057.4
20260905092128 90 132 4.0 11.0 0.00 0.00 0.00 44 1057.4
20260905091851 90 100 4.0 11.0 0.00 0.00 0.00 44 1057.3
20260905091532 90 60 4.0 11.0 0.00 0.00 0.00 43 1057.4
20260905091432 90 59 4.0 11.0 0.00 0.00 0.00 43 1057.3
20260905091331 90 58 5.0 11.0 0.00 0.00 0.00 43 1057.4
20260905091232 90 60 5.0 11.0 0.00 0.00 0.00 43 1057.3
20260905091142 90 60 4.0 11.0 0.00 0.00 0.00 43 1057.3
20260905091132 90 57 4.0 11.0 0.00 0.00 0.00 43 1057.3
20260905091031 90 89 4.0 11.0 0.00 0.00 0.00 43 1057.3
20260905090931 90 135 5.0 11.0 0.00 0.00 0.00 43 1057.3
20260905090832 90 138 4.0 11.0 0.00 0.00 0.00 44 1057.3
20260905090732 90 141 4.0 11.0 0.00 0.00 0.00 44 1057.3
20260905090703 89 141 4.0 11.0 0.00 0.00 0.00 44 1057.3
20260905090646 89 143 4.0 11.0 0.00 0.00 0.00 44 1057.3
20260905090639 89 99 4.0 11.0 0.00 0.00 0.00 44 1057.2
20260905090631 89 145 4.0 11.0 0.00 0.00 0.00 44 1057.2
20260905090615 89 139 4.0 11.0 0.00 0.00 0.00 44 1057.3
20260905090606 89 109 4.0 11.0 0.00 0.00 0.00 44 1057.2
20260905090555 89 110 4.0 11.0 0.00 0.00 0.00 44 1057.2
20260905090333 89 109 3.0 11.0 0.00 0.00 0.00 46 1057.3
20260905090324 89 129 3.0 7.0 0.00 0.00 0.00 46 1057.2
20260905090037 89 106 3.0 7.0 0.00 0.00 0.00 49 1057.2
20260905090021 89 108 3.0 7.0 0.00 0.00 0.00 48 1057.2
20260905085751 88 154 3.0 6.0 0.00 0.00 0.00 48 1057.1
20260905085251 88 158 2.0 6.0 0.00 0.00 0.00 50 1057.1
20260905084923 88 151 2.0 6.0 0.00 0.00 0.00 50 1057.1
20260905084821 88 152 2.0 6.0 0.00 0.00 0.00 49 1057.1
20260905084720 88 152 2.0 6.0 0.00 0.00 0.00 49 1057.1
20260905084643 88 152 2.0 6.0 0.00 0.00 0.00 52 1057.1
20260905084635 87 155 2.0 6.0 0.00 0.00 0.00 51 1057.1
20260905084350 87 192 2.0 4.0 0.00 0.00 0.00 53 1057.1
20260905084341 87 192 2.0 4.0 0.00 0.00 0.00 53 1057.1
20260905084332 87 192 2.0 4.0 0.00 0.00 0.00 53 1057.1
20260905084323 87 193 2.0 4.0 0.00 0.00 0.00 53 1057.1
20260905084311 87 192 2.0 4.0 0.00 0.00 0.00 54 1057.1
20260905084300 87 195 2.0 4.0 0.00 0.00 0.00 54 1057.1
20260905084031 87 193 2.0 4.0 0.00 0.00 0.00 56 1057.1
20260905084013 87 193 2.0 4.0 0.00 0.00 0.00 56 1057.1
20260905083529 87 193 2.0 4.0 0.00 0.00 0.00 57 1057.0
20260905083208 86 193 3.0 4.0 0.00 0.00 0.00 58 1057.1
20260905083131 86 193 3.0 4.0 0.00 0.00 0.00 58 1057.1
20260905083105 86 194 3.0 4.0 0.00 0.00 0.00 58 1057.0
20260905083042 86 197 3.0 4.0 0.00 0.00 0.00 58 1057.0
20260905083034 86 197 2.0 4.0 0.00 0.00 0.00 58 1057.0
20260905082703 86 197 2.0 4.0 0.00 0.00 0.00 59 1057.0
20260905082630 86 197 2.0 4.0 0.00 0.00 0.00 59 1057.0
20260905082604 86 197 2.0 4.0 0.00 0.00 0.00 58 1057.0
20260905082504 86 197 2.0 4.0 0.00 0.00 0.00 59 1057.0
20260905082403 86 197 2.0 4.0 0.00 0.00 0.00 59 1057.0
20260905082307 86 197 2.0 4.0 0.00 0.00 0.00 59 1057.0
20260905082203 86 197 2.0 4.0 0.00 0.00 0.00 58 1056.9
20260905082130 86 197 2.0 4.0 0.00 0.00 0.00 58 1056.9
20260905082103 86 258 2.0 3.0 0.00 0.00 0.00 58 1057.0
20260905082005 86 258 2.0 3.0 0.00 0.00 0.00 58 1057.0
20260905081915 86 259 2.0 3.0 0.00 0.00 0.00 59 1056.9
20260905081903 86 260 2.0 3.0 0.00 0.00 0.00 59 1056.9
20260905081851 86 260 2.0 3.0 0.00 0.00 0.00 59 1056.9
20260905081834 86 260 2.0 3.0 0.00 0.00 0.00 59 1056.9
20260905081601 86 261 2.0 3.0 0.00 0.00 0.00 59 1056.9
20260905081551 86 261 2.0 3.0 0.00 0.00 0.00 60 1056.9
20260905081542 86 261 2.0 3.0 0.00 0.00 0.00 59 1056.9
20260905081051 86 261 2.0 3.0 0.00 0.00 0.00 59 1056.9
20260905081043 86 261 2.0 3.0 0.00 0.00 0.00 59 1056.9
20260905081029 86 261 2.0 3.0 0.00 0.00 0.00 59 1056.9
20260905081014 85 261 2.0 3.0 0.00 0.00 0.00 58 1056.9
20260905081004 85 260 2.0 3.0 0.00 0.00 0.00 58 1056.9
20260905080958 85 261 2.0 3.0 0.00 0.00 0.00 58 1056.9
20260905080731 85 269 2.0 3.0 0.00 0.00 0.00 59 1056.9
20260905080710 85 269 2.0 3.0 0.00 0.00 0.00 59 1056.9
20260905080659 86 269 2.0 3.0 0.00 0.00 0.00 58 1056.9
20260905080213 86 269 2.0 3.0 0.00 0.00 0.00 58 1056.9
20260905080203 86 269 2.0 3.0 0.00 0.00 0.00 57 1056.8
20260905080151 86 269 2.0 3.0 0.00 0.00 0.00 56 1056.8
20260905080142 86 270 1.0 3.0 0.00 0.00 0.00 57 1056.8
20260905075916 86 270 1.0 3.0 0.00 0.00 0.00 57 1056.8
20260905075904 86 272 1.0 3.0 0.00 0.00 0.00 57 1056.8
20260905075130 85 277 1.0 2.0 0.00 0.00 0.00 56 1056.8
20260905075103 85 277 1.0 3.0 0.00 0.00 0.00 58 1056.8
20260905075004 85 276 1.0 3.0 0.00 0.00 0.00 58 1056.8
20260905074930 85 276 1.0 3.0 0.00 0.00 0.00 57 1056.8
20260905074916 84 276 1.0 3.0 0.00 0.00 0.00 58 1056.8
20260905074902 84 276 2.0 3.0 0.00 0.00 0.00 58 1056.8
20260905074850 84 276 2.0 3.0 0.00 0.00 0.00 58 1056.8
20260905074627 84 276 2.0 3.0 0.00 0.00 0.00 57 1056.8
20260905074320 83 276 2.0 3.0 0.00 0.00 0.00 58 1056.8
20260905074311 83 276 2.0 3.0 0.00 0.00 0.00 57 1056.7
20260905074301 83 276 2.0 3.0 0.00 0.00 0.00 57 1056.7
20260905074251 83 276 2.0 3.0 0.00 0.00 0.00 58 1056.8
20260905074023 82 276 2.0 3.0 0.00 0.00 0.00 58 1056.7
20260905074008 82 277 2.0 3.0 0.00 0.00 0.00 58 1056.8
20260905073953 82 278 2.0 4.0 0.00 0.00 0.00 58 1056.7
20260905073943 82 278 2.0 4.0 0.00 0.00 0.00 59 1056.7
20260905073403 82 278 2.0 4.0 0.00 0.00 0.00 59 1056.7
20260905073304 82 278 2.0 4.0 0.00 0.00 0.00 59 1056.7
20260905073201 82 278 2.0 4.0 0.00 0.00 0.00 59 1056.8
20260905073130 81 277 2.0 4.0 0.00 0.00 0.00 59 1056.8
20260905073101 81 278 3.0 6.0 0.00 0.00 0.00 59 1056.8
20260905073002 81 278 2.0 7.0 0.00 0.00 0.00 59 1056.8
20260905072902 81 278 3.0 7.0 0.00 0.00 0.00 59 1056.7
20260905072802 81 277 3.0 7.0 0.00 0.00 0.00 60 1056.7
20260905072638 81 278 3.0 7.0 0.00 0.00 0.00 60 1056.7
20260905072630 81 278 3.0 7.0 0.00 0.00 0.00 60 1056.8
20260905072622 80 278 3.0 7.0 0.00 0.00 0.00 60 1056.8
20260905072259 80 279 3.0 7.0 0.00 0.00 0.00 61 1056.8
20260905072130 80 279 3.0 7.0 0.00 0.00 0.00 61 1056.7
20260905072059 80 278 3.0 7.0 0.00 0.00 0.00 61 1056.7
20260905071957 80 278 3.0 7.0 0.00 0.00 0.00 62 1056.7
20260905071857 80 278 3.0 7.0 0.00 0.00 0.00 62 1056.7
20260905071758 79 277 3.0 7.0 0.00 0.00 0.00 62 1056.7
20260905071738 79 278 3.0 7.0 0.00 0.00 0.00 62 1056.7
20260905071729 79 289 3.0 7.0 0.00 0.00 0.00 62 1056.7
20260905071722 79 271 3.0 6.0 0.00 0.00 0.00 62 1056.7
20260905071347 79 261 4.0 8.0 0.00 0.00 0.00 64 1056.7
20260905071247 78 260 4.0 9.0 0.00 0.00 0.00 64 1056.7
20260905071130 78 259 4.0 9.0 0.00 0.00 0.00 64 1056.6
20260905071046 78 280 4.0 9.0 0.00 0.00 0.00 64 1056.6
20260905070943 78 280 4.0 9.0 0.00 0.00 0.00 65 1056.6
20260905070843 78 278 4.0 9.0 0.00 0.00 0.00 65 1056.6
20260905070741 78 278 4.0 9.0 0.00 0.00 0.00 65 1056.6
20260905070640 77 276 4.0 9.0 0.00 0.00 0.00 65 1056.6
20260905070631 77 286 4.0 9.0 0.00 0.00 0.00 65 1056.6
20260905070541 77 287 4.0 9.0 0.00 0.00 0.00 66 1056.5
20260905070513 77 262 4.0 9.0 0.00 0.00 0.00 66 1056.5
20260905070504 77 267 3.0 9.0 0.00 0.00 0.00 66 1056.6
20260905070141 76 292 3.0 7.0 0.00 0.00 0.00 68 1056.5
20260905070131 76 293 3.0 7.0 0.00 0.00 0.00 68 1056.5
20260905070035 76 269 3.0 7.0 0.00 0.00 0.00 68 1056.5
20260905065935 76 278 3.0 6.0 0.00 0.00 0.00 68 1056.5
20260905065835 76 263 3.0 6.0 0.00 0.00 0.00 68 1056.5
20260905065733 76 263 3.0 7.0 0.00 0.00 0.00 68 1056.5
20260905065654 76 262 3.0 7.0 0.00 0.00 0.00 68 1056.5
20260905065643 76 263 3.0 7.0 0.00 0.00 0.00 68 1056.5
20260905065637 76 262 4.0 7.0 0.00 0.00 0.00 68 1056.5
20260905065629 75 262 4.0 7.0 0.00 0.00 0.00 68 1056.5
20260905065618 75 262 4.0 7.0 0.00 0.00 0.00 68 1056.5
20260905065608 75 262 4.0 7.0 0.00 0.00 0.00 68 1056.5
20260905065033 75 270 4.0 7.0 0.00 0.00 0.00 68 1056.4
20260905064948 75 271 4.0 7.0 0.00 0.00 0.00 68 1056.4
20260905064936 74 273 4.0 7.0 0.00 0.00 0.00 69 1056.4
20260905064918 74 272 4.0 7.0 0.00 0.00 0.00 69 1056.4
20260905064650 74 273 5.0 8.0 0.00 0.00 0.00 69 1056.4
20260905064642 74 272 5.0 8.0 0.00 0.00 0.00 69 1056.4
20260905064630 74 271 5.0 8.0 0.00 0.00 0.00 69 1056.4
20260905064359 74 270 5.0 8.0 0.00 0.00 0.00 69 1056.4
20260905064344 74 270 5.0 8.0 0.00 0.00 0.00 69 1056.4
20260905064031 74 270 5.0 8.0 0.00 0.00 0.00 69 1056.4
20260905063931 73 270 5.0 8.0 0.00 0.00 0.00 69 1056.4
20260905063832 73 269 5.0 8.0 0.00 0.00 0.00 69 1056.4
20260905063731 73 272 5.0 8.0 0.00 0.00 0.00 69 1056.4
20260905063633 73 268 4.0 8.0 0.00 0.00 0.00 69 1056.4
20260905063600 73 276 4.0 8.0 0.00 0.00 0.00 69 1056.4
20260905063552 73 277 4.0 8.0 0.00 0.00 0.00 69 1056.4
20260905063318 73 265 4.0 8.0 0.00 0.00 0.00 69 1056.4
20260905063303 73 267 4.0 8.0 0.00 0.00 0.00 69 1056.4
20260905062931 73 253 4.0 8.0 0.00 0.00 0.00 69 1056.4
20260905062831 72 290 4.0 8.0 0.00 0.00 0.00 70 1056.5
20260905062812 72 263 4.0 8.0 0.00 0.00 0.00 70 1056.4
20260905062759 72 277 4.0 8.0 0.00 0.00 0.00 70 1056.4
20260905062429 72 276 4.0 8.0 0.00 0.00 0.00 70 1056.4
20260905062328 72 274 4.0 8.0 0.00 0.00 0.00 70 1056.5
20260905062231 72 270 4.0 8.0 0.00 0.00 0.00 70 1056.5
20260905062129 72 268 4.0 8.0 0.00 0.00 0.00 70 1056.5
20260905062029 72 268 4.0 8.0 0.00 0.00 0.00 70 1056.5
20260905061929 71 268 4.0 8.0 0.00 0.00 0.00 71 1056.5
20260905061829 71 267 5.0 8.0 0.00 0.00 0.00 71 1056.5
20260905061730 71 272 5.0 8.0 0.00 0.00 0.00 71 1056.5
20260905061630 71 272 5.0 8.0 0.00 0.00 0.00 71 1056.5
20260905061529 71 272 5.0 8.0 0.00 0.00 0.00 71 1056.5
20260905061430 71 278 5.0 8.0 0.00 0.00 0.00 71 1056.5
20260905061329 71 283 5.0 8.0 0.00 0.00 0.00 71 1056.5
20260905061229 71 283 6.0 8.0 0.00 0.00 0.00 71 1056.5
20260905061135 71 284 6.0 8.0 0.00 0.00 0.00 71 1056.5
20260905061125 71 285 6.0 8.0 0.00 0.00 0.00 71 1056.5
20260905061029 71 283 6.0 9.0 0.00 0.00 0.00 71 1056.5
20260905060925 71 277 6.0 9.0 0.00 0.00 0.00 71 1056.4
20260905060825 71 294 6.0 9.0 0.00 0.00 0.00 71 1056.4
20260905060725 71 279 6.0 9.0 0.00 0.00 0.00 71 1056.4
20260905060656 71 293 6.0 9.0 0.00 0.00 0.00 71 1056.4
20260905060648 71 273 6.0 9.0 0.00 0.00 0.00 72 1056.4
20260905060636 71 287 6.0 9.0 0.00 0.00 0.00 72 1056.4
20260905060358 71 280 6.0 9.0 0.00 0.00 0.00 72 1056.3
20260905060125 71 283 6.0 9.0 0.00 0.00 0.00 72 1056.4
20260905060029 71 278 6.0 8.0 0.00 0.00 0.00 72 1056.3
20260905055925 71 276 5.0 8.0 0.00 0.00 0.00 72 1056.3
20260905055907 71 273 5.0 8.0 0.00 0.00 0.00 73 1056.3
20260905055858 71 274 5.0 8.0 0.00 0.00 0.00 73 1056.3
20260905055846 71 258 5.0 8.0 0.00 0.00 0.00 73 1056.3
20260905055528 71 280 5.0 8.0 0.00 0.00 0.00 73 1056.2
20260905055425 71 243 5.0 8.0 0.00 0.00 0.00 73 1056.2
20260905055326 71 273 5.0 8.0 0.00 0.00 0.00 72 1056.3
20260905055226 71 280 5.0 8.0 0.00 0.00 0.00 72 1056.2
20260905055126 71 280 5.0 8.0 0.00 0.00 0.00 72 1056.2
20260905055058 71 272 5.0 7.0 0.00 0.00 0.00 72 1056.2
20260905055050 71 275 5.0 7.0 0.00 0.00 0.00 72 1056.2
20260905055037 71 276 5.0 7.0 0.00 0.00 0.00 72 1056.2
20260905054751 71 262 5.0 7.0 0.00 0.00 0.00 72 1056.2
20260905054428 71 270 5.0 7.0 0.00 0.00 0.00 72 1056.2
20260905054324 71 268 5.0 7.0 0.00 0.00 0.00 72 1056.1
20260905054225 71 267 5.0 8.0 0.00 0.00 0.00 72 1056.1
20260905054125 71 266 5.0 8.0 0.00 0.00 0.00 72 1056.2
20260905054028 71 266 5.0 8.0 0.00 0.00 0.00 72 1056.1
20260905053925 71 273 5.0 8.0 0.00 0.00 0.00 72 1056.2
20260905053907 71 256 5.0 8.0 0.00 0.00 0.00 73 1056.1
20260905053850 71 257 5.0 8.0 0.00 0.00 0.00 73 1056.1
20260905053621 71 272 5.0 8.0 0.00 0.00 0.00 73 1056.2
20260905053521 71 272 5.0 8.0 0.00 0.00 0.00 73 1056.2
20260905053421 71 273 5.0 8.0 0.00 0.00 0.00 74 1056.2
20260905053321 71 272 5.0 8.0 0.00 0.00 0.00 74 1056.1
20260905053221 71 292 5.0 7.0 0.00 0.00 0.00 74 1056.1
20260905053121 71 266 5.0 8.0 0.00 0.00 0.00 74 1056.1
20260905053033 71 264 5.0 8.0 0.00 0.00 0.00 75 1056.1
20260905053006 71 275 4.0 8.0 0.00 0.00 0.00 75 1056.1
20260905052956 71 274 4.0 8.0 0.00 0.00 0.00 75 1056.1
20260905052938 71 270 4.0 8.0 0.00 0.00 0.00 75 1056.1
20260905052925 70 272 4.0 8.0 0.00 0.00 0.00 75 1056.1
20260905052658 70 272 4.0 8.0 0.00 0.00 0.00 75 1056.1
20260905052425 70 277 4.0 8.0 0.00 0.00 0.00 76 1056.1
20260905052411 70 277 4.0 8.0 0.00 0.00 0.00 76 1056.0
20260905052402 70 276 4.0 8.0 0.00 0.00 0.00 76 1056.0
20260905052354 70 263 4.0 6.0 0.00 0.00 0.00 76 1056.0
20260905052123 70 262 4.0 7.0 0.00 0.00 0.00 76 1056.0
20260905052115 70 269 4.0 7.0 0.00 0.00 0.00 76 1056.1
20260905052104 70 269 4.0 7.0 0.00 0.00 0.00 76 1056.0
20260905051521 70 268 4.0 7.0 0.00 0.00 0.00 76 1055.8
20260905051421 70 260 4.0 7.0 0.00 0.00 0.00 76 1055.8
20260905051321 70 261 4.0 7.0 0.00 0.00 0.00 76 1055.8
20260905051226 70 260 4.0 7.0 0.00 0.00 0.00 76 1055.8
20260905051121 70 260 4.0 7.0 0.00 0.00 0.00 76 1055.8
20260905051052 70 260 4.0 7.0 0.00 0.00 0.00 76 1055.8
20260905051042 70 266 4.0 7.0 0.00 0.00 0.00 76 1055.8
20260905050801 70 266 4.0 7.0 0.00 0.00 0.00 76 1055.8
20260905050745 70 266 4.0 7.0 0.00 0.00 0.00 75 1055.8
20260905050418 70 276 4.0 7.0 0.00 0.00 0.00 75 1055.8
20260905050319 70 256 4.0 7.0 0.00 0.00 0.00 75 1055.8
20260905050218 70 255 4.0 7.0 0.00 0.00 0.00 75 1055.8
20260905050152 70 263 4.0 7.0 0.00 0.00 0.00 75 1055.8
20260905050147 70 262 4.0 7.0 0.00 0.00 0.00 75 1055.8
20260905050139 70 262 4.0 8.0 0.00 0.00 0.00 75 1055.8
20260905045818 70 262 5.0 8.0 0.00 0.00 0.00 75 1055.8
20260905045716 70 262 5.0 8.0 0.00 0.00 0.00 75 1055.8
20260905045615 70 267 5.0 8.0 0.00 0.00 0.00 75 1055.8
20260905045535 70 276 5.0 8.0 0.00 0.00 0.00 75 1055.8
20260905045525 70 266 4.0 8.0 0.00 0.00 0.00 75 1055.8
20260905045515 70 267 4.0 8.0 0.00 0.00 0.00 75 1055.8
20260905045505 70 277 4.0 8.0 0.00 0.00 0.00 75 1055.7
20260905045446 70 270 4.0 8.0 0.00 0.00 0.00 75 1055.7
20260905045434 70 281 4.0 8.0 0.00 0.00 0.00 75 1055.7
20260905045426 70 293 4.0 8.0 0.00 0.00 0.00 75 1055.7
20260905045416 70 273 4.0 8.0 0.00 0.00 0.00 75 1055.6
20260905044925 70 272 4.0 7.0 0.00 0.00 0.00 75 1055.6
20260905044433 70 276 4.0 7.0 0.00 0.00 0.00 75 1055.6
20260905044126 70 264 4.0 7.0 0.00 0.00 0.00 75 1055.6
20260905044105 70 260 4.0 7.0 0.00 0.00 0.00 75 1055.6
20260905044003 70 266 4.0 7.0 0.00 0.00 0.00 75 1055.5
20260905043904 70 264 3.0 7.0 0.00 0.00 0.00 75 1055.6
20260905043804 70 262 3.0 7.0 0.00 0.00 0.00 75 1055.6
20260905043703 70 257 3.0 7.0 0.00 0.00 0.00 75 1055.6
20260905043624 70 257 3.0 7.0 0.00 0.00 0.00 75 1055.6
20260905043603 70 251 3.0 7.0 0.00 0.00 0.00 75 1055.5
20260905043531 70 243 3.0 7.0 0.00 0.00 0.00 75 1055.5
20260905043523 70 243 2.0 7.0 0.00 0.00 0.00 76 1055.5
20260905043201 70 243 2.0 5.0 0.00 0.00 0.00 76 1055.5
20260905043124 70 243 2.0 5.0 0.00 0.00 0.00 77 1055.5
20260905043055 70 240 2.0 5.0 0.00 0.00 0.00 77 1055.5
20260905042955 70 237 2.0 5.0 0.00 0.00 0.00 77 1055.5
20260905042855 70 237 2.0 5.0 0.00 0.00 0.00 78 1055.5
20260905042756 70 237 3.0 6.0 0.00 0.00 0.00 78 1055.5
20260905042654 70 237 3.0 7.0 0.00 0.00 0.00 78 1055.5
20260905042621 70 237 3.0 7.0 0.00 0.00 0.00 78 1055.5
20260905042555 70 237 3.0 7.0 0.00 0.00 0.00 78 1055.5
20260905042453 69 263 3.0 7.0 0.00 0.00 0.00 78 1055.5
20260905042353 69 263 4.0 7.0 0.00 0.00 0.00 78 1055.5
20260905042252 69 270 4.0 8.0 0.00 0.00 0.00 78 1055.5
20260905042122 69 270 4.0 8.0 0.00 0.00 0.00 78 1055.5
20260905042049 69 270 4.0 8.0 0.00 0.00 0.00 78 1055.5
20260905041947 69 270 4.0 8.0 0.00 0.00 0.00 78 1055.5
20260905041844 69 270 4.0 8.0 0.00 0.00 0.00 78 1055.4
20260905041824 69 282 4.0 8.0 0.00 0.00 0.00 79 1055.5
20260905041815 69 255 4.0 8.0 0.00 0.00 0.00 79 1055.4
20260905041805 69 270 4.0 8.0 0.00 0.00 0.00 79 1055.4
20260905041440 69 269 4.0 8.0 0.00 0.00 0.00 79 1055.5
20260905041339 69 260 4.0 8.0 0.00 0.00 0.00 79 1055.5
20260905041239 69 267 4.0 7.0 0.00 0.00 0.00 79 1055.4
20260905041139 69 261 4.0 7.0 0.00 0.00 0.00 79 1055.4
20260905041122 69 259 4.0 7.0 0.00 0.00 0.00 79 1055.4
20260905041039 69 262 4.0 7.0 0.00 0.00 0.00 79 1055.4
20260905040938 69 271 4.0 7.0 0.00 0.00 0.00 79 1055.4
20260905040850 69 267 4.0 7.0 0.00 0.00 0.00 79 1055.4
20260905040839 69 260 4.0 7.0 0.00 0.00 0.00 79 1055.4
20260905040827 69 265 4.0 7.0 0.00 0.00 0.00 79 1055.4
20260905040818 69 264 4.0 7.0 0.00 0.00 0.00 79 1055.4
20260905040556 69 261 4.0 7.0 0.00 0.00 0.00 79 1055.4
20260905040302 69 280 4.0 7.0 0.00 0.00 0.00 79 1055.4
20260905040254 69 266 4.0 7.0 0.00 0.00 0.00 79 1055.4
20260905040245 69 265 4.0 7.0 0.00 0.00 0.00 79 1055.4
20260905040234 69 264 4.0 7.0 0.00 0.00 0.00 79 1055.4
20260905040221 69 263 4.0 7.0 0.00 0.00 0.00 79 1055.4
20260905035621 69 262 4.0 7.0 0.00 0.00 0.00 79 1055.4
20260905035533 69 261 4.0 7.0 0.00 0.00 0.00 79 1055.3
20260905035433 69 265 4.0 7.0 0.00 0.00 0.00 79 1055.4
20260905035333 69 254 4.0 7.0 0.00 0.00 0.00 79 1055.3
20260905035313 69 254 4.0 7.0 0.00 0.00 0.00 79 1055.4
20260905035256 69 254 4.0 7.0 0.00 0.00 0.00 79 1055.3
20260905035003 69 253 5.0 7.0 0.00 0.00 0.00 79 1055.4
20260905034955 69 253 5.0 7.0 0.00 0.00 0.00 79 1055.4
20260905034622 69 249 5.0 8.0 0.00 0.00 0.00 79 1055.4
20260905034530 69 243 5.0 8.0 0.00 0.00 0.00 79 1055.5
20260905034431 69 247 5.0 8.0 0.00 0.00 0.00 79 1055.4
20260905034330 69 258 5.0 8.0 0.00 0.00 0.00 79 1055.4
20260905034230 69 257 5.0 8.0 0.00 0.00 0.00 79 1055.4
20260905034122 69 274 5.0 8.0 0.00 0.00 0.00 79 1055.3
20260905034059 69 270 5.0 8.0 0.00 0.00 0.00 79 1055.4
20260905034051 69 268 5.0 8.0 0.00 0.00 0.00 79 1055.3
20260905033726 69 270 5.0 8.0 0.00 0.00 0.00 79 1055.4
20260905033631 69 273 5.0 8.0 0.00 0.00 0.00 79 1055.3
20260905033622 69 272 5.0 8.0 0.00 0.00 0.00 79 1055.3
20260905033526 69 273 5.0 8.0 0.00 0.00 0.00 79 1055.3
20260905033425 69 273 5.0 8.0 0.00 0.00 0.00 79 1055.4
20260905033402 69 272 5.0 8.0 0.00 0.00 0.00 79 1055.4
20260905033352 69 274 5.0 8.0 0.00 0.00 0.00 79 1055.4
20260905033336 69 266 5.0 8.0 0.00 0.00 0.00 79 1055.4
20260905033027 69 263 5.0 8.0 0.00 0.00 0.00 79 1055.4
20260905032922 69 271 5.0 8.0 0.00 0.00 0.00 79 1055.4
20260905032900 69 273 5.0 8.0 0.00 0.00 0.00 79 1055.4
20260905032850 69 273 6.0 8.0 0.00 0.00 0.00 79 1055.4
20260905032834 69 276 6.0 8.0 0.00 0.00 0.00 79 1055.4
20260905032518 69 270 6.0 8.0 0.00 0.00 0.00 79 1055.4
20260905032416 69 278 5.0 8.0 0.00 0.00 0.00 79 1055.4
20260905032317 69 278 5.0 8.0 0.00 0.00 0.00 79 1055.4
20260905032306 69 270 5.0 8.0 0.00 0.00 0.00 79 1055.4
20260905032247 69 277 5.0 8.0 0.00 0.00 0.00 79 1055.4
20260905031910 69 278 4.0 8.0 0.00 0.00 0.00 79 1055.4
20260905031809 69 281 4.0 7.0 0.00 0.00 0.00 79 1055.4
20260905031748 69 281 4.0 7.0 0.00 0.00 0.00 79 1055.4
20260905031732 69 280 4.0 7.0 0.00 0.00 0.00 79 1055.4
20260905031410 69 278 4.0 7.0 0.00 0.00 0.00 79 1055.4
20260905031355 69 278 4.0 8.0 0.00 0.00 0.00 79 1055.4
20260905031340 69 272 4.0 8.0 0.00 0.00 0.00 79 1055.3
20260905031105 69 272 5.0 8.0 0.00 0.00 0.00 79 1055.3
20260905031002 69 271 5.0 8.0 0.00 0.00 0.00 79 1055.3
20260905030903 69 270 5.0 8.0 0.00 0.00 0.00 79 1055.3
20260905030805 69 270 5.0 8.0 0.00 0.00 0.00 79 1055.3
20260905030704 69 272 5.0 8.0 0.00 0.00 0.00 79 1055.3
20260905030641 69 271 5.0 8.0 0.00 0.00 0.00 79 1055.3
20260905030631 69 271 5.0 8.0 0.00 0.00 0.00 80 1055.3
20260905030623 69 277 5.0 8.0 0.00 0.00 0.00 80 1055.3
20260905030615 69 277 5.0 7.0 0.00 0.00 0.00 80 1055.3
20260905030604 69 276 5.0 7.0 0.00 0.00 0.00 80 1055.3
20260905030004 69 273 4.0 7.0 0.00 0.00 0.00 80 1055.4
20260905025903 69 273 4.0 7.0 0.00 0.00 0.00 81 1055.4
20260905025850 69 273 4.0 7.0 0.00 0.00 0.00 81 1055.4
20260905025836 69 272 4.0 8.0 0.00 0.00 0.00 81 1055.4
20260905025822 69 270 4.0 8.0 0.00 0.00 0.00 81 1055.4
20260905025502 69 270 4.0 8.0 0.00 0.00 0.00 81 1055.4
20260905025401 69 268 4.0 8.0 0.00 0.00 0.00 81 1055.4
20260905025306 69 268 4.0 8.0 0.00 0.00 0.00 81 1055.4
20260905025202 69 268 4.0 8.0 0.00 0.00 0.00 81 1055.4
20260905025113 69 268 4.0 8.0 0.00 0.00 0.00 81 1055.5
20260905025101 69 268 4.0 8.0 0.00 0.00 0.00 81 1055.5
20260905025003 69 267 4.0 8.0 0.00 0.00 0.00 81 1055.4
20260905024900 69 266 4.0 8.0 0.00 0.00 0.00 81 1055.5
20260905024800 69 270 5.0 8.0 0.00 0.00 0.00 81 1055.5
20260905024659 69 269 5.0 8.0 0.00 0.00 0.00 81 1055.5
20260905024613 69 270 5.0 8.0 0.00 0.00 0.00 81 1055.5
20260905024600 69 270 5.0 8.0 0.00 0.00 0.00 81 1055.5
20260905024459 69 268 5.0 8.0 0.00 0.00 0.00 81 1055.4
20260905024357 69 267 5.0 8.0 0.00 0.00 0.00 81 1055.4
20260905024301 69 266 5.0 8.0 0.00 0.00 0.00 81 1055.4
20260905024155 69 276 5.0 8.0 0.00 0.00 0.00 81 1055.4
20260905024107 69 285 5.0 8.0 0.00 0.00 0.00 81 1055.4
20260905024053 69 276 5.0 8.0 0.00 0.00 0.00 81 1055.4
20260905023954 69 276 5.0 8.0 0.00 0.00 0.00 81 1055.4
20260905023853 69 280 5.0 8.0 0.00 0.00 0.00 81 1055.4
20260905023753 69 280 5.0 8.0 0.00 0.00 0.00 81 1055.4
20260905023739 69 276 5.0 8.0 0.00 0.00 0.00 81 1055.4
20260905023729 69 284 5.0 8.0 0.00 0.00 0.00 81 1055.4
20260905023723 69 283 5.0 8.0 0.00 0.00 0.00 81 1055.4
20260905023714 69 281 5.0 8.0 0.00 0.00 0.00 81 1055.4
20260905023705 69 283 5.0 8.0 0.00 0.00 0.00 81 1055.4
20260905023214 69 264 5.0 7.0 0.00 0.00 0.00 81 1055.4
20260905023207 69 280 5.0 7.0 0.00 0.00 0.00 81 1055.4
20260905022855 69 270 5.0 7.0 0.00 0.00 0.00 81 1055.4
20260905022844 69 268 5.0 7.0 0.00 0.00 0.00 81 1055.5
20260905022822 69 270 5.0 7.0 0.00 0.00 0.00 80 1055.4
20260905022554 69 269 5.0 7.0 0.00 0.00 0.00 80 1055.4
20260905022539 69 268 5.0 7.0 0.00 0.00 0.00 80 1055.4
20260905022524 69 267 5.0 7.0 0.00 0.00 0.00 80 1055.4
20260905022255 69 271 5.0 7.0 0.00 0.00 0.00 80 1055.4
20260905021933 69 276 5.0 7.0 0.00 0.00 0.00 80 1055.4
20260905021832 69 274 5.0 7.0 0.00 0.00 0.00 80 1055.4
20260905021733 69 274 5.0 7.0 0.00 0.00 0.00 80 1055.5
20260905021708 69 271 5.0 7.0 0.00 0.00 0.00 80 1055.4
20260905021658 69 269 5.0 7.0 0.00 0.00 0.00 80 1055.4
20260905021652 69 274 5.0 7.0 0.00 0.00 0.00 80 1055.4
20260905021332 69 270 5.0 7.0 0.00 0.00 0.00 80 1055.5
20260905021232 69 271 4.0 7.0 0.00 0.00 0.00 80 1055.5
20260905021130 69 268 4.0 7.0 0.00 0.00 0.00 80 1055.5
20260905021104 69 266 4.0 7.0 0.00 0.00 0.00 80 1055.4
20260905021031 69 266 4.0 7.0 0.00 0.00 0.00 80 1055.4
20260905020930 69 266 4.0 7.0 0.00 0.00 0.00 80 1055.5
20260905020830 69 265 4.0 7.0 0.00 0.00 0.00 80 1055.4
20260905020725 69 270 4.0 7.0 0.00 0.00 0.00 80 1055.4
20260905020625 69 268 4.0 7.0 0.00 0.00 0.00 80 1055.4
20260905020603 69 266 4.0 7.0 0.00 0.00 0.00 80 1055.5
20260905020525 69 267 4.0 7.0 0.00 0.00 0.00 80 1055.5
20260905020328 69 272 4.0 7.0 0.00 0.00 0.00 80 1055.5
20260905020221 69 274 4.0 7.0 0.00 0.00 0.00 80 1055.4
20260905020121 69 273 4.0 7.0 0.00 0.00 0.00 80 1055.5
20260905020105 69 273 4.0 7.0 0.00 0.00 0.00 80 1055.4
20260905020026 69 274 4.0 7.0 0.00 0.00 0.00 80 1055.4
20260905015939 69 272 4.0 7.0 0.00 0.00 0.00 80 1055.5
20260905015931 69 264 4.0 7.0 0.00 0.00 0.00 81 1055.5
20260905015916 69 277 4.0 6.0 0.00 0.00 0.00 81 1055.4
20260905015906 69 277 4.0 7.0 0.00 0.00 0.00 81 1055.5
20260905015643 69 277 4.0 7.0 0.00 0.00 0.00 81 1055.5
20260905015313 69 277 4.0 7.0 0.00 0.00 0.00 81 1055.5
20260905015205 69 277 4.0 7.0 0.00 0.00 0.00 81 1055.5
20260905015103 70 276 4.0 7.0 0.00 0.00 0.00 81 1055.5
20260905015005 70 277 5.0 7.0 0.00 0.00 0.00 81 1055.5
20260905014905 70 277 5.0 7.0 0.00 0.00 0.00 81 1055.5
20260905014805 70 276 5.0 7.0 0.00 0.00 0.00 81 1055.4
20260905014705 70 280 5.0 7.0 0.00 0.00 0.00 81 1055.5
20260905014603 70 278 5.0 7.0 0.00 0.00 0.00 81 1055.5
20260905014506 70 278 5.0 7.0 0.00 0.00 0.00 81 1055.5
20260905014451 70 278 5.0 8.0 0.00 0.00 0.00 81 1055.5
20260905014438 70 277 5.0 8.0 0.00 0.00 0.00 81 1055.5
20260905014423 70 277 5.0 8.0 0.00 0.00 0.00 81 1055.5
20260905014413 70 277 5.0 8.0 0.00 0.00 0.00 81 1055.5
20260905014150 70 277 5.0 8.0 0.00 0.00 0.00 81 1055.5
20260905014138 70 277 5.0 8.0 0.00 0.00 0.00 81 1055.4
20260905014130 70 276 5.0 8.0 0.00 0.00 0.00 81 1055.4
20260905014118 70 275 5.0 8.0 0.00 0.00 0.00 81 1055.5
20260905014100 70 278 5.0 8.0 0.00 0.00 0.00 81 1055.5
20260905014050 70 275 5.0 8.0 0.00 0.00 0.00 81 1055.5
20260905013824 70 272 5.0 7.0 0.00 0.00 0.00 81 1055.5
20260905013118 70 265 5.0 8.0 0.00 0.00 0.00 81 1055.5
20260905012757 70 278 5.0 8.0 0.00 0.00 0.00 81 1055.6
20260905012656 70 281 4.0 8.0 0.00 0.00 0.00 81 1055.6
20260905012636 70 281 4.0 8.0 0.00 0.00 0.00 81 1055.5
20260905012629 70 281 4.0 8.0 0.00 0.00 0.00 81 1055.5
20260905012618 70 282 4.0 8.0 0.00 0.00 0.00 81 1055.5
20260905012330 70 276 4.0 8.0 0.00 0.00 0.00 81 1055.6
20260905012319 70 271 4.0 8.0 0.00 0.00 0.00 81 1055.6
20260905012308 70 278 4.0 6.0 0.00 0.00 0.00 81 1055.6
20260905012306 70 278 4.0 6.0 0.00 0.00 0.00 81 1055.6
20260905012255 70 280 4.0 7.0 0.00 0.00 0.00 81 1055.5
20260905012246 70 280 4.0 8.0 0.00 0.00 0.00 81 1055.6
20260905012010 70 281 5.0 8.0 0.00 0.00 0.00 81 1055.6
20260905011739 70 280 5.0 8.0 0.00 0.00 0.00 80 1055.6
20260905011509 70 281 5.0 8.0 0.00 0.00 0.00 80 1055.6
20260905011143 70 271 6.0 8.0 0.00 0.00 0.00 80 1055.6
20260905011104 70 270 5.0 8.0 0.00 0.00 0.00 80 1055.6
20260905011043 70 277 5.0 8.0 0.00 0.00 0.00 80 1055.6
20260905010941 70 276 5.0 8.0 0.00 0.00 0.00 80 1055.6
20260905010839 70 278 5.0 7.0 0.00 0.00 0.00 80 1055.6
20260905010746 70 278 5.0 7.0 0.00 0.00 0.00 80 1055.6
20260905010639 70 278 5.0 7.0 0.00 0.00 0.00 80 1055.6
20260905010603 70 276 5.0 7.0 0.00 0.00 0.00 80 1055.6
20260905010537 70 276 5.0 7.0 0.00 0.00 0.00 80 1055.6
20260905010437 71 275 5.0 7.0 0.00 0.00 0.00 80 1055.6
20260905010416 71 274 5.0 7.0 0.00 0.00 0.00 80 1055.6
20260905010406 71 273 5.0 8.0 0.00 0.00 0.00 80 1055.6
20260905010036 70 271 5.0 9.0 0.00 0.00 0.00 80 1055.6
20260905005933 70 273 5.0 9.0 0.00 0.00 0.00 80 1055.7
20260905005833 70 274 5.0 9.0 0.00 0.00 0.00 80 1055.6
20260905005733 70 275 5.0 9.0 0.00 0.00 0.00 80 1055.6
20260905005722 70 264 5.0 9.0 0.00 0.00 0.00 81 1055.6
20260905005702 70 264 5.0 9.0 0.00 0.00 0.00 81 1055.7
20260905005648 70 273 5.0 9.0 0.00 0.00 0.00 81 1055.7
20260905005422 70 276 5.0 9.0 0.00 0.00 0.00 81 1055.7
20260905005407 70 276 5.0 8.0 0.00 0.00 0.00 81 1055.7
20260905005353 70 277 4.0 8.0 0.00 0.00 0.00 81 1055.7
20260905005124 70 278 4.0 7.0 0.00 0.00 0.00 81 1055.7
20260905004854 70 280 4.0 7.0 0.00 0.00 0.00 81 1055.7
20260905004559 70 280 4.0 7.0 0.00 0.00 0.00 81 1055.7
20260905004547 70 280 4.0 7.0 0.00 0.00 0.00 82 1055.7
20260905004539 70 281 4.0 7.0 0.00 0.00 0.00 82 1055.7
20260905004526 70 280 4.0 7.0 0.00 0.00 0.00 82 1055.8
20260905004257 70 277 4.0 7.0 0.00 0.00 0.00 82 1055.8
20260905004248 70 276 4.0 7.0 0.00 0.00 0.00 82 1055.8
20260905003921 70 276 4.0 7.0 0.00 0.00 0.00 82 1055.8
20260905003820 70 274 4.0 7.0 0.00 0.00 0.00 82 1055.8
20260905003719 70 274 4.0 7.0 0.00 0.00 0.00 82 1055.8
20260905003653 70 359 4.0 7.0 0.00 0.00 0.00 82 1055.8
20260905003643 70 273 4.0 7.0 0.00 0.00 0.00 82 1055.8
20260905003637 70 272 4.0 7.0 0.00 0.00 0.00 82 1055.8
20260905003311 70 262 4.0 7.0 0.00 0.00 0.00 82 1055.8
20260905003211 70 266 4.0 7.0 0.00 0.00 0.00 83 1055.8
20260905003133 70 279 4.0 7.0 0.00 0.00 0.00 83 1055.8
20260905003124 70 277 4.0 7.0 0.00 0.00 0.00 83 1055.8
20260905003115 70 276 4.0 6.0 0.00 0.00 0.00 83 1055.8
20260905003102 70 275 4.0 6.0 0.00 0.00 0.00 83 1055.8
20260905002828 70 278 3.0 6.0 0.00 0.00 0.00 83 1055.8
20260905002815 70 278 3.0 6.0 0.00 0.00 0.00 83 1055.8
20260905002505 70 277 3.0 6.0 0.00 0.00 0.00 83 1055.8
20260905002405 70 276 3.0 6.0 0.00 0.00 0.00 83 1055.8
20260905002306 71 275 3.0 6.0 0.00 0.00 0.00 83 1055.8
20260905002205 71 276 3.0 6.0 0.00 0.00 0.00 83 1055.8
20260905002105 71 276 3.0 4.0 0.00 0.00 0.00 83 1055.8
20260905002056 71 276 3.0 4.0 0.00 0.00 0.00 83 1055.8
20260905002003 71 276 3.0 6.0 0.00 0.00 0.00 83 1055.8
20260905001937 71 276 3.0 6.0 0.00 0.00 0.00 83 1055.8
20260905001929 71 276 4.0 7.0 0.00 0.00 0.00 83 1055.8
20260905001603 71 276 4.0 7.0 0.00 0.00 0.00 83 1055.8
20260905001534 71 276 4.0 7.0 0.00 0.00 0.00 83 1055.8
20260905001527 71 276 4.0 7.0 0.00 0.00 0.00 83 1055.8
20260905001201 71 275 4.0 7.0 0.00 0.00 0.00 83 1055.8
20260905001055 71 274 4.0 7.0 0.00 0.00 0.00 83 1056.0
20260905001001 71 274 4.0 7.0 0.00 0.00 0.00 84 1056.0
20260905000900 71 274 4.0 7.0 0.00 0.00 0.00 84 1056.0
20260905000755 71 285 4.0 6.0 0.00 0.00 0.00 84 1056.0
20260905000655 71 284 4.0 6.0 0.00 0.00 0.00 84 1056.0
20260905000556 71 280 4.0 6.0 0.00 0.00 0.00 84 1056.0
20260905000454 71 279 4.0 6.0 0.00 0.00 0.00 84 1056.0
20260905000351 71 279 4.0 6.0 0.00 0.00 0.00 83 1056.0
20260905000245 71 278 4.0 6.0 0.00 0.00 0.00 83 1056.0
20260905000145 71 279 4.0 6.0 0.00 0.00 0.00 83 1056.0
20260905000116 71 279 4.0 6.0 0.00 0.00 0.00 83 1056.0
20260905000109 71 280 4.0 6.0 0.00 0.00 0.00 83 1056.0
20260905000101 71 278 4.0 6.0 0.00 0.00 0.00 83 1056.0
20260905000049 71 278 4.0 6.0 0.00 0.00 0.00 83 1056.0
20260904235814 71 280 3.0 6.0 0.00 0.00 0.00 83 1056.0
20260904235539 71 280 3.0 6.0 0.00 0.00 0.00 83 1056.0
20260904235440 71 280 4.0 7.0 0.00 0.00 0.00 83 1056.1
20260904235339 71 280 4.0 8.0 0.00 0.00 0.00 83 1056.0
20260904235237 71 282 4.0 8.0 0.00 0.00 0.00 83 1056.0
20260904235138 71 283 4.0 8.0 0.00 0.00 0.00 83 1056.1
20260904235037 71 283 4.0 8.0 0.00 0.00 0.00 83 1056.0
20260904235004 72 281 5.0 8.0 0.00 0.00 0.00 83 1056.0
20260904234956 72 281 5.0 8.0 0.00 0.00 0.00 83 1056.0
20260904234633 72 280 5.0 8.0 0.00 0.00 0.00 83 1056.0
20260904234555 72 281 5.0 8.0 0.00 0.00 0.00 83 1056.0
20260904234533 72 282 5.0 8.0 0.00 0.00 0.00 83 1056.0
20260904234433 72 293 5.0 8.0 0.00 0.00 0.00 83 1056.0
20260904234333 72 278 5.0 7.0 0.00 0.00 0.00 82 1056.1
20260904234233 72 278 5.0 7.0 0.00 0.00 0.00 83 1056.0
20260904234134 72 277 5.0 7.0 0.00 0.00 0.00 83 1056.0
20260904234107 72 276 5.0 7.0 0.00 0.00 0.00 83 1056.1
20260904234057 72 274 5.0 7.0 0.00 0.00 0.00 83 1056.1
20260904233732 72 283 4.0 7.0 0.00 0.00 0.00 83 1056.1
20260904233711 72 278 4.0 7.0 0.00 0.00 0.00 83 1056.1
20260904233701 72 278 4.0 7.0 0.00 0.00 0.00 83 1056.1
20260904233654 72 277 4.0 7.0 0.00 0.00 0.00 83 1056.1
20260904233351 72 267 4.0 8.0 0.00 0.00 0.00 83 1056.1
20260904233340 72 267 4.0 8.0 0.00 0.00 0.00 83 1056.1
20260904233332 72 266 4.0 8.0 0.00 0.00 0.00 83 1056.1
20260904233320 72 267 4.0 8.0 0.00 0.00 0.00 83 1056.1
20260904233315 72 266 4.0 8.0 0.00 0.00 0.00 83 1056.1
20260904233305 72 265 4.0 8.0 0.00 0.00 0.00 83 1056.1
20260904232808 72 264 4.0 8.0 0.00 0.00 0.00 84 1056.2
20260904232758 71 263 4.0 8.0 0.00 0.00 0.00 84 1056.1
20260904232536 71 276 4.0 8.0 0.00 0.00 0.00 84 1056.1
20260904232219 71 276 3.0 8.0 0.00 0.00 0.00 84 1056.2
20260904232112 71 272 3.0 6.0 0.00 0.00 0.00 84 1056.2
20260904232047 71 272 3.0 6.0 0.00 0.00 0.00 84 1056.2
20260904232011 71 272 3.0 6.0 0.00 0.00 0.00 85 1056.2
20260904231911 71 272 3.0 6.0 0.00 0.00 0.00 85 1056.1
20260904231811 71 272 3.0 6.0 0.00 0.00 0.00 85 1056.1
20260904231709 72 272 3.0 6.0 0.00 0.00 0.00 85 1056.1
20260904231648 72 271 3.0 6.0 0.00 0.00 0.00 85 1056.1
20260904231638 72 272 3.0 6.0 0.00 0.00 0.00 85 1056.1
20260904231628 72 271 3.0 6.0 0.00 0.00 0.00 85 1056.1
20260904231331 72 271 3.0 6.0 0.00 0.00 0.00 85 1056.2
20260904231320 72 272 3.0 6.0 0.00 0.00 0.00 85 1056.2
20260904231306 72 272 3.0 6.0 0.00 0.00 0.00 86 1056.2
20260904231007 72 271 3.0 6.0 0.00 0.00 0.00 86 1056.2
20260904230907 72 270 2.0 6.0 0.00 0.00 0.00 86 1056.1
20260904230807 72 270 2.0 6.0 0.00 0.00 0.00 86 1056.1
20260904230748 72 269 2.0 6.0 0.00 0.00 0.00 86 1056.1
20260904230740 71 274 2.0 4.0 0.00 0.00 0.00 86 1056.1
20260904230732 71 272 2.0 4.0 0.00 0.00 0.00 86 1056.1
20260904230405 72 272 2.0 3.0 0.00 0.00 0.00 86 1056.1
20260904230330 72 272 2.0 3.0 0.00 0.00 0.00 86 1056.1
20260904230320 72 272 2.0 6.0 0.00 0.00 0.00 86 1056.2
20260904230307 71 272 2.0 6.0 0.00 0.00 0.00 86 1056.2
20260904230037 71 272 3.0 6.0 0.00 0.00 0.00 86 1056.1
20260904230030 71 272 3.0 6.0 0.00 0.00 0.00 86 1056.2
20260904225745 71 272 3.0 6.0 0.00 0.00 0.00 86 1056.1
20260904225737 71 272 3.0 6.0 0.00 0.00 0.00 86 1056.2
20260904225728 71 272 3.0 6.0 0.00 0.00 0.00 86 1056.2
20260904225403 71 272 3.0 6.0 0.00 0.00 0.00 87 1056.2
20260904225305 71 272 3.0 6.0 0.00 0.00 0.00 87 1056.2
20260904225203 71 271 2.0 6.0 0.00 0.00 0.00 87 1056.2
20260904225104 71 270 2.0 6.0 0.00 0.00 0.00 87 1056.2
20260904225043 71 270 2.0 6.0 0.00 0.00 0.00 87 1056.2
20260904225003 71 268 2.0 6.0 0.00 0.00 0.00 87 1056.3
20260904224936 71 266 2.0 6.0 0.00 0.00 0.00 87 1056.2
20260904224928 71 260 2.0 4.0 0.00 0.00 0.00 88 1056.3
20260904224602 71 259 2.0 4.0 0.00 0.00 0.00 88 1056.2
20260904224543 71 260 2.0 4.0 0.00 0.00 0.00 88 1056.2
20260904224502 71 259 2.0 4.0 0.00 0.00 0.00 88 1056.2
20260904224403 71 258 2.0 4.0 0.00 0.00 0.00 88 1056.2
20260904224303 71 258 2.0 4.0 0.00 0.00 0.00 88 1056.3
20260904224202 71 258 2.0 4.0 0.00 0.00 0.00 88 1056.2
20260904224102 71 258 2.0 4.0 0.00 0.00 0.00 88 1056.3
20260904224043 71 258 2.0 4.0 0.00 0.00 0.00 88 1056.3
20260904224002 71 248 2.0 4.0 0.00 0.00 0.00 88 1056.2
20260904223902 71 229 2.0 3.0 0.00 0.00 0.00 88 1056.2
20260904223828 71 228 2.0 3.0 0.00 0.00 0.00 88 1056.2
20260904223812 71 228 2.0 3.0 0.00 0.00 0.00 88 1056.2
20260904223800 71 229 2.0 4.0 0.00 0.00 0.00 88 1056.2
20260904223502 71 229 2.0 4.0 0.00 0.00 0.00 88 1056.2
20260904223402 71 228 2.0 4.0 0.00 0.00 0.00 88 1056.2
20260904223307 71 227 2.0 4.0 0.00 0.00 0.00 88 1056.2
20260904223242 71 229 2.0 4.0 0.00 0.00 0.00 88 1056.2
20260904223234 71 229 2.0 4.0 0.00 0.00 0.00 88 1056.2
20260904223226 71 229 2.0 4.0 0.00 0.00 0.00 88 1056.2
20260904222901 71 229 2.0 4.0 0.00 0.00 0.00 88 1056.2
20260904222833 71 228 2.0 4.0 0.00 0.00 0.00 88 1056.2
20260904222824 71 227 2.0 4.0 0.00 0.00 0.00 88 1056.2
20260904222542 71 209 2.0 4.0 0.00 0.00 0.00 88 1056.2
20260904222457 72 210 1.0 4.0 0.00 0.00 0.00 88 1056.2
20260904222440 72 191 1.0 3.0 0.00 0.00 0.00 88 1056.2
20260904222430 72 190 1.0 3.0 0.00 0.00 0.00 88 1056.2
20260904222055 72 189 1.0 2.0 0.00 0.00 0.00 88 1056.2
20260904222045 72 190 1.0 2.0 0.00 0.00 0.00 88 1056.2
20260904221955 72 190 1.0 2.0 0.00 0.00 0.00 88 1056.2
20260904221853 72 189 1.0 2.0 0.00 0.00 0.00 88 1056.2
20260904221751 72 189 1.0 2.0 0.00 0.00 0.00 88 1056.2
20260904221647 72 189 1.0 2.0 0.00 0.00 0.00 88 1056.2
20260904221616 72 189 1.0 2.0 0.00 0.00 0.00 88 1056.2
20260904221608 72 189 1.0 3.0 0.00 0.00 0.00 88 1056.3
20260904221328 72 189 1.0 3.0 0.00 0.00 0.00 88 1056.2
20260904221311 72 189 1.0 3.0 0.00 0.00 0.00 88 1056.2
20260904221040 72 189 2.0 3.0 0.00 0.00 0.00 88 1056.2
20260904220938 72 189 2.0 3.0 0.00 0.00 0.00 88 1056.2
20260904220837 72 189 2.0 3.0 0.00 0.00 0.00 88 1056.2
20260904220740 72 189 2.0 3.0 0.00 0.00 0.00 88 1056.2
20260904220632 72 189 1.0 3.0 0.00 0.00 0.00 88 1056.2
20260904220534 72 189 1.0 3.0 0.00 0.00 0.00 88 1056.2
20260904220433 72 188 1.0 2.0 0.00 0.00 0.00 88 1056.2
20260904220333 72 187 1.0 2.0 0.00 0.00 0.00 88 1056.2
20260904220233 72 187 1.0 2.0 0.00 0.00 0.00 88 1056.2
20260904220131 72 187 1.0 2.0 0.00 0.00 0.00 88 1056.2
20260904220030 72 187 1.0 3.0 0.00 0.00 0.00 88 1056.2
20260904215930 72 187 1.0 3.0 0.00 0.00 0.00 88 1056.2
20260904215844 72 187 1.0 3.0 0.00 0.00 0.00 89 1056.3
20260904215836 72 187 1.0 3.0 0.00 0.00 0.00 89 1056.3
20260904215826 72 187 1.0 3.0 0.00 0.00 0.00 89 1056.3
20260904215811 73 187 2.0 3.0 0.00 0.00 0.00 89 1056.2
20260904215801 73 187 2.0 3.0 0.00 0.00 0.00 89 1056.3
20260904215748 73 187 2.0 3.0 0.00 0.00 0.00 89 1056.3
20260904215519 73 187 2.0 3.0 0.00 0.00 0.00 89 1056.2
20260904214921 73 187 2.0 3.0 0.00 0.00 0.00 89 1056.2
20260904214822 73 188 2.0 3.0 0.00 0.00 0.00 89 1056.2
20260904214722 73 187 2.0 3.0 0.00 0.00 0.00 88 1056.2
20260904214621 73 187 2.0 3.0 0.00 0.00 0.00 88 1056.3
20260904214537 73 189 2.0 3.0 0.00 0.00 0.00 88 1056.2
20260904214519 73 187 2.0 3.0 0.00 0.00 0.00 88 1056.2
20260904214417 73 187 2.0 3.0 0.00 0.00 0.00 88 1056.2
20260904214314 73 187 2.0 3.0 0.00 0.00 0.00 88 1056.2
20260904214215 73 187 2.0 2.0 0.00 0.00 0.00 88 1056.2
20260904214114 73 187 1.0 2.0 0.00 0.00 0.00 88 1056.2
20260904214036 73 187 1.0 2.0 0.00 0.00 0.00 88 1056.3
20260904214013 73 187 1.0 2.0 0.00 0.00 0.00 88 1056.2
20260904213910 73 189 1.0 2.0 0.00 0.00 0.00 88 1056.3
20260904213808 73 187 1.0 2.0 0.00 0.00 0.00 88 1056.3
20260904213708 73 187 1.0 2.0 0.00 0.00 0.00 88 1056.3
20260904213607 73 187 1.0 3.0 0.00 0.00 0.00 88 1056.3
20260904213536 73 187 1.0 3.0 0.00 0.00 0.00 88 1056.3
20260904213507 73 187 1.0 3.0 0.00 0.00 0.00 88 1056.2
20260904213406 73 187 1.0 3.0 0.00 0.00 0.00 88 1056.3
20260904213305 73 187 1.0 3.0 0.00 0.00 0.00 88 1056.3
20260904213203 73 187 2.0 3.0 0.00 0.00 0.00 88 1056.2
20260904213104 73 187 2.0 3.0 0.00 0.00 0.00 88 1056.2
20260904213035 73 187 2.0 3.0 0.00 0.00 0.00 88 1056.2
20260904213003 73 187 2.0 3.0 0.00 0.00 0.00 88 1056.2
20260904212903 73 187 2.0 3.0 0.00 0.00 0.00 88 1056.2
20260904212816 73 187 2.0 3.0 0.00 0.00 0.00 88 1056.2
20260904212805 73 187 2.0 3.0 0.00 0.00 0.00 88 1056.2
20260904212753 73 187 2.0 3.0 0.00 0.00 0.00 88 1056.2
20260904212743 73 187 2.0 3.0 0.00 0.00 0.00 88 1056.2
20260904212734 73 187 1.0 3.0 0.00 0.00 0.00 88 1056.2
20260904212500 73 187 1.0 3.0 0.00 0.00 0.00 88 1056.2
20260904212449 73 187 2.0 3.0 0.00 0.00 0.00 88 1056.2
20260904212441 74 187 2.0 3.0 0.00 0.00 0.00 88 1056.2
20260904211934 74 187 2.0 3.0 0.00 0.00 0.00 88 1056.2
20260904211925 74 187 2.0 3.0 0.00 0.00 0.00 88 1056.2
20260904211615 74 187 2.0 3.0 0.00 0.00 0.00 88 1056.2
20260904211608 74 187 2.0 3.0 0.00 0.00 0.00 88 1056.2
20260904211556 74 187 2.0 3.0 0.00 0.00 0.00 87 1056.2
20260904211325 74 187 1.0 3.0 0.00 0.00 0.00 87 1056.2
20260904211031 74 187 1.0 3.0 0.00 0.00 0.00 87 1056.2
20260904211001 74 187 1.0 2.0 0.00 0.00 0.00 87 1056.2
20260904210859 74 186 1.0 2.0 0.00 0.00 0.00 87 1056.3
20260904210759 74 187 1.0 2.0 0.00 0.00 0.00 87 1056.2
20260904210659 74 187 1.0 2.0 0.00 0.00 0.00 87 1056.3
20260904210601 74 187 1.0 2.0 0.00 0.00 0.00 87 1056.3
20260904210530 74 187 1.0 2.0 0.00 0.00 0.00 87 1056.3
20260904210458 74 187 1.0 2.0 0.00 0.00 0.00 87 1056.3
20260904210358 74 187 1.0 2.0 0.00 0.00 0.00 87 1056.2
20260904210300 74 187 1.0 2.0 0.00 0.00 0.00 87 1056.3
20260904210158 74 187 1.0 2.0 0.00 0.00 0.00 87 1056.3
20260904210031 74 187 0.0 2.0 0.00 0.00 0.00 87 1056.3
20260904205957 74 187 0.0 2.0 0.00 0.00 0.00 87 1056.3
20260904205855 74 186 0.0 2.0 0.00 0.00 0.00 87 1056.3
20260904205755 74 187 0.0 2.0 0.00 0.00 0.00 87 1056.3
20260904205652 74 187 0.0 0.0 0.00 0.00 0.00 87 1056.3
20260904205530 74 187 0.0 0.0 0.00 0.00 0.00 87 1056.4
20260904205451 74 187 0.0 0.0 0.00 0.00 0.00 87 1056.3
20260904205349 74 187 0.0 0.0 0.00 0.00 0.00 87 1056.4
20260904205249 74 189 0.0 0.0 0.00 0.00 0.00 87 1056.4
20260904205147 74 187 0.0 0.0 0.00 0.00 0.00 87 1056.4
20260904205043 74 187 0.0 1.0 0.00 0.00 0.00 87 1056.4
20260904204937 74 187 0.0 1.0 0.00 0.00 0.00 87 1056.4
20260904204859 74 187 0.0 2.0 0.00 0.00 0.00 87 1056.3
20260904204849 74 186 0.0 2.0 0.00 0.00 0.00 87 1056.3
20260904204836 74 186 1.0 2.0 0.00 0.00 0.00 86 1056.4
20260904204608 74 187 1.0 2.0 0.00 0.00 0.00 86 1056.3
20260904204601 74 187 1.0 2.0 0.00 0.00 0.00 86 1056.3
20260904204232 74 187 1.0 2.0 0.00 0.00 0.00 86 1056.3
20260904204131 75 187 1.0 3.0 0.00 0.00 0.00 86 1056.3
20260904204028 75 187 1.0 3.0 0.00 0.00 0.00 86 1056.3
20260904203927 75 187 1.0 3.0 0.00 0.00 0.00 86 1056.3
20260904203859 75 187 1.0 3.0 0.00 0.00 0.00 86 1056.2
20260904203848 75 187 1.0 3.0 0.00 0.00 0.00 86 1056.2
20260904203525 75 187 1.0 3.0 0.00 0.00 0.00 86 1056.3
20260904203428 75 187 1.0 3.0 0.00 0.00 0.00 86 1056.3
20260904203325 75 187 1.0 3.0 0.00 0.00 0.00 86 1056.3
20260904203310 75 187 1.0 3.0 0.00 0.00 0.00 86 1056.3
20260904203300 75 187 1.0 3.0 0.00 0.00 0.00 86 1056.3
20260904203244 75 187 1.0 3.0 0.00 0.00 0.00 86 1056.3
20260904202921 75 187 1.0 3.0 0.00 0.00 0.00 86 1056.3
20260904202820 75 187 1.0 3.0 0.00 0.00 0.00 86 1056.3
20260904202721 75 187 1.0 3.0 0.00 0.00 0.00 86 1056.3
20260904202621 75 187 1.0 3.0 0.00 0.00 0.00 86 1056.3
20260904202521 75 187 1.0 3.0 0.00 0.00 0.00 86 1056.3
20260904202419 75 188 1.0 3.0 0.00 0.00 0.00 86 1056.3
20260904202317 76 187 1.0 3.0 0.00 0.00 0.00 86 1056.3
20260904202218 76 187 1.0 3.0 0.00 0.00 0.00 86 1056.3
20260904202120 76 187 0.0 3.0 0.00 0.00 0.00 86 1056.3
20260904202023 76 187 0.0 2.0 0.00 0.00 0.00 86 1056.3
20260904201917 76 185 0.0 0.0 0.00 0.00 0.00 86 1056.3
20260904201818 76 185 0.0 0.0 0.00 0.00 0.00 86 1056.3
20260904201807 76 185 0.0 0.0 0.00 0.00 0.00 86 1056.3
20260904201750 76 186 0.0 0.0 0.00 0.00 0.00 86 1056.2
20260904201517 76 185 0.0 0.0 0.00 0.00 0.00 85 1056.3
20260904201416 76 185 0.0 0.0 0.00 0.00 0.00 85 1056.2
20260904201312 76 186 0.0 0.0 0.00 0.00 0.00 85 1056.2
20260904201213 76 186 0.0 0.0 0.00 0.00 0.00 85 1056.2
20260904201110 76 185 0.0 0.0 0.00 0.00 0.00 85 1056.2
20260904201030 76 186 0.0 0.0 0.00 0.00 0.00 85 1056.2
20260904201011 76 185 0.0 0.0 0.00 0.00 0.00 85 1056.2
20260904200909 76 185 0.0 0.0 0.00 0.00 0.00 85 1056.2
20260904200809 76 185 0.0 0.0 0.00 0.00 0.00 85 1056.2
20260904200707 76 185 0.0 1.0 0.00 0.00 0.00 85 1056.2
20260904200605 76 184 0.0 1.0 0.00 0.00 0.00 85 1056.2
20260904200507 76 185 0.0 2.0 0.00 0.00 0.00 85 1056.2
20260904200405 76 185 1.0 2.0 0.00 0.00 0.00 85 1056.2
20260904200307 76 184 1.0 2.0 0.00 0.00 0.00 85 1056.2
20260904200204 76 184 1.0 2.0 0.00 0.00 0.00 85 1056.2
20260904200104 76 185 1.0 2.0 0.00 0.00 0.00 85 1056.1
20260904200004 76 185 1.0 2.0 0.00 0.00 0.00 85 1056.1
20260904195904 76 185 1.0 2.0 0.00 0.00 0.00 84 1056.1
20260904195805 76 185 1.0 2.0 0.00 0.00 0.00 84 1056.1
20260904195703 76 187 1.0 2.0 0.00 0.00 0.00 84 1056.1
20260904195643 76 185 1.0 3.0 0.00 0.00 0.00 84 1056.1
20260904195627 76 184 1.0 3.0 0.00 0.00 0.00 84 1056.1
20260904195341 77 185 1.0 3.0 0.00 0.00 0.00 84 1056.1
20260904195330 77 185 1.0 3.0 0.00 0.00 0.00 84 1056.1
20260904195030 77 185 1.0 3.0 0.00 0.00 0.00 84 1056.1
20260904195023 77 184 2.0 3.0 0.00 0.00 0.00 84 1056.1
20260904195013 77 184 2.0 3.0 0.00 0.00 0.00 84 1056.1
20260904194959 77 184 2.0 3.0 0.00 0.00 0.00 84 1056.1
20260904194947 77 185 2.0 3.0 0.00 0.00 0.00 83 1056.1
20260904194721 77 184 2.0 3.0 0.00 0.00 0.00 83 1056.1
20260904194403 77 184 1.0 3.0 0.00 0.00 0.00 83 1056.0
20260904194303 77 184 1.0 3.0 0.00 0.00 0.00 83 1056.0
20260904194202 77 184 1.0 3.0 0.00 0.00 0.00 83 1056.0
20260904194103 77 181 1.0 2.0 0.00 0.00 0.00 83 1056.0
20260904194030 77 182 1.0 2.0 0.00 0.00 0.00 83 1056.0
20260904194003 77 182 1.0 2.0 0.00 0.00 0.00 83 1056.0
20260904193900 77 182 1.0 2.0 0.00 0.00 0.00 83 1056.1
20260904193757 78 181 0.0 2.0 0.00 0.00 0.00 83 1056.0
20260904193657 78 182 0.0 2.0 0.00 0.00 0.00 82 1056.0
20260904193556 78 181 0.0 2.0 0.00 0.00 0.00 82 1056.0
20260904193530 78 182 0.0 1.0 0.00 0.00 0.00 82 1056.0
20260904193457 78 182 0.0 1.0 0.00 0.00 0.00 82 1056.0
20260904193357 78 182 0.0 1.0 0.00 0.00 0.00 82 1056.0
20260904193244 78 181 0.0 1.0 0.00 0.00 0.00 82 1056.0
20260904193144 78 181 0.0 1.0 0.00 0.00 0.00 82 1055.8
20260904193044 78 181 0.0 1.0 0.00 0.00 0.00 82 1055.8
20260904193031 78 182 0.0 1.0 0.00 0.00 0.00 82 1055.8
20260904192944 78 181 0.0 1.0 0.00 0.00 0.00 82 1055.8
20260904192845 78 181 0.0 1.0 0.00 0.00 0.00 82 1055.8
20260904192741 78 182 0.0 1.0 0.00 0.00 0.00 82 1055.8
20260904192641 78 182 0.0 1.0 0.00 0.00 0.00 83 1055.7
20260904192530 78 182 0.0 1.0 0.00 0.00 0.00 83 1055.7
20260904192513 78 182 0.0 1.0 0.00 0.00 0.00 83 1055.7
20260904192505 78 182 0.0 1.0 0.00 0.00 0.00 83 1055.7
20260904192140 78 181 0.0 1.0 0.00 0.00 0.00 83 1055.7
20260904192041 78 182 0.0 1.0 0.00 0.00 0.00 83 1055.7
20260904192031 78 181 0.0 1.0 0.00 0.00 0.00 83 1055.7
20260904191939 78 182 0.0 1.0 0.00 0.00 0.00 83 1055.7
20260904191839 79 182 0.0 1.0 0.00 0.00 0.00 82 1055.6
20260904191736 79 182 0.0 1.0 0.00 0.00 0.00 82 1055.6
20260904191635 79 181 0.0 1.0 0.00 0.00 0.00 82 1055.6
20260904191540 79 182 0.0 1.0 0.00 0.00 0.00 82 1055.6
20260904191530 79 181 0.0 1.0 0.00 0.00 0.00 82 1055.6
20260904191432 79 182 0.0 1.0 0.00 0.00 0.00 82 1055.5
20260904191415 79 181 0.0 1.0 0.00 0.00 0.00 82 1055.5
20260904191401 79 182 0.0 1.0 0.00 0.00 0.00 82 1055.5
20260904191033 79 181 0.0 2.0 0.00 0.00 0.00 82 1055.5
20260904190955 79 182 0.0 2.0 0.00 0.00 0.00 82 1055.5
20260904190947 79 181 0.0 2.0 0.00 0.00 0.00 82 1055.4
20260904190933 79 182 1.0 4.0 0.00 0.00 0.00 82 1055.5
20260904190922 79 182 1.0 5.0 0.00 0.00 0.00 82 1055.4
20260904190654 79 181 1.0 5.0 0.00 0.00 0.00 82 1055.4
20260904190329 79 181 1.0 5.0 0.00 0.00 0.00 82 1055.4
20260904190303 79 181 1.0 5.0 0.00 0.00 0.00 82 1055.4
20260904190254 79 181 1.0 5.0 0.00 0.00 0.00 82 1055.4
20260904190245 79 181 1.0 5.0 0.00 0.00 0.00 82 1055.4
20260904185918 79 182 1.0 5.0 0.00 0.00 0.00 82 1055.4
20260904185819 79 181 1.0 5.0 0.00 0.00 0.00 81 1055.4
20260904185805 79 181 0.0 5.0 0.00 0.00 0.00 81 1055.4
20260904185751 79 100 0.0 3.0 0.00 0.00 0.00 81 1055.4
20260904185517 80 100 0.0 3.0 0.00 0.00 0.00 81 1055.4
20260904185413 80 170 0.0 1.0 0.00 0.00 0.00 81 1055.3
20260904185312 80 170 0.0 1.0 0.00 0.00 0.00 80 1055.3
20260904185215 80 170 0.0 1.0 0.00 0.00 0.00 80 1055.3
20260904185112 80 169 0.0 1.0 0.00 0.00 0.00 80 1055.2
20260904185015 80 169 0.0 1.0 0.00 0.00 0.00 80 1055.2
20260904184911 80 170 0.0 2.0 0.00 0.00 0.00 80 1055.2
20260904184809 80 170 0.0 2.0 0.00 0.00 0.00 80 1055.2
20260904184708 80 169 0.0 2.0 0.00 0.00 0.00 80 1055.2
20260904184609 80 170 1.0 2.0 0.00 0.00 0.00 80 1055.2
20260904184509 80 170 1.0 4.0 0.00 0.00 0.00 80 1055.2
20260904184408 80 169 1.0 4.0 0.00 0.00 0.00 80 1055.2
20260904184307 80 170 1.0 4.0 0.00 0.00 0.00 80 1055.1
20260904184207 80 169 1.0 4.0 0.00 0.00 0.00 79 1055.1
20260904184107 80 170 1.0 4.0 0.00 0.00 0.00 79 1055.1
20260904184030 80 169 1.0 4.0 0.00 0.00 0.00 79 1055.1
20260904184006 80 170 1.0 4.0 0.00 0.00 0.00 79 1055.1
20260904183907 80 170 1.0 4.0 0.00 0.00 0.00 79 1055.1
20260904183840 80 170 2.0 4.0 0.00 0.00 0.00 79 1055.1
20260904183831 80 169 2.0 4.0 0.00 0.00 0.00 79 1055.0
20260904183813 80 170 2.0 4.0 0.00 0.00 0.00 78 1055.1
20260904183801 80 173 2.0 3.0 0.00 0.00 0.00 78 1055.1
20260904183756 80 174 1.0 3.0 0.00 0.00 0.00 78 1055.0
20260904183527 81 173 1.0 3.0 0.00 0.00 0.00 78 1055.0
20260904183251 81 174 1.0 3.0 0.00 0.00 0.00 78 1055.0
20260904183001 81 174 1.0 3.0 0.00 0.00 0.00 77 1055.0
20260904182925 81 174 1.0 3.0 0.00 0.00 0.00 77 1055.0
20260904182917 81 174 1.0 3.0 0.00 0.00 0.00 77 1054.9
20260904182530 81 174 0.0 3.0 0.00 0.00 0.00 77 1054.9
20260904182509 81 174 0.0 3.0 0.00 0.00 0.00 77 1054.8
20260904182501 81 174 0.0 2.0 0.00 0.00 0.00 76 1054.9
20260904182449 81 174 1.0 2.0 0.00 0.00 0.00 76 1054.8
20260904182436 81 174 1.0 3.0 0.00 0.00 0.00 76 1054.8
20260904182428 81 174 1.0 3.0 0.00 0.00 0.00 76 1054.8
20260904181846 82 174 1.0 3.0 0.00 0.00 0.00 76 1054.8
20260904181740 82 174 1.0 3.0 0.00 0.00 0.00 76 1054.8
20260904181716 82 174 1.0 3.0 0.00 0.00 0.00 76 1054.8
20260904181658 82 174 1.0 3.0 0.00 0.00 0.00 75 1054.8
20260904181332 82 174 2.0 5.0 0.00 0.00 0.00 75 1054.8
20260904181312 82 174 2.0 5.0 0.00 0.00 0.00 75 1054.8
20260904181303 82 177 2.0 5.0 0.00 0.00 0.00 75 1054.7
20260904181248 82 177 2.0 6.0 0.00 0.00 0.00 75 1054.8
20260904180931 82 177 2.0 8.0 0.00 0.00 0.00 75 1054.7
20260904180831 82 177 2.0 8.0 0.00 0.00 0.00 75 1054.7
20260904180806 82 176 2.0 8.0 0.00 0.00 0.00 74 1054.8
20260904180756 82 179 2.0 8.0 0.00 0.00 0.00 74 1054.8
20260904180524 82 179 2.0 8.0 0.00 0.00 0.00 74 1054.7
20260904180425 83 180 2.0 8.0 0.00 0.00 0.00 74 1054.7
20260904180324 83 173 2.0 8.0 0.00 0.00 0.00 74 1054.7
20260904180224 83 195 2.0 8.0 0.00 0.00 0.00 74 1054.7
20260904180124 83 196 2.0 8.0 0.00 0.00 0.00 73 1054.7
20260904180034 83 160 2.0 8.0 0.00 0.00 0.00 73 1054.7
20260904180027 83 159 2.0 8.0 0.00 0.00 0.00 73 1054.7
20260904175925 83 189 2.0 4.0 0.00 0.00 0.00 73 1054.7
20260904175852 83 189 2.0 4.0 0.00 0.00 0.00 73 1054.7
20260904175842 83 189 2.0 4.0 0.00 0.00 0.00 73 1054.7
20260904175544 83 189 2.0 6.0 0.00 0.00 0.00 73 1054.7
20260904175536 83 189 2.0 6.0 0.00 0.00 0.00 73 1054.6
20260904175522 83 189 2.0 6.0 0.00 0.00 0.00 72 1054.7
20260904175250 83 189 2.0 6.0 0.00 0.00 0.00 72 1054.6
20260904175018 83 189 2.0 6.0 0.00 0.00 0.00 72 1054.6
20260904174917 83 189 2.0 6.0 0.00 0.00 0.00 72 1054.6
20260904174818 83 189 2.0 6.0 0.00 0.00 0.00 72 1054.6
20260904174721 83 188 2.0 6.0 0.00 0.00 0.00 72 1054.5
20260904174617 84 164 2.0 6.0 0.00 0.00 0.00 71 1054.5
20260904174531 84 161 2.0 5.0 0.00 0.00 0.00 71 1054.5
20260904174512 84 162 2.0 5.0 0.00 0.00 0.00 71 1054.5
20260904174412 84 162 2.0 5.0 0.00 0.00 0.00 71 1054.5
20260904174332 84 137 3.0 8.0 0.00 0.00 0.00 71 1054.4
20260904174321 84 158 3.0 8.0 0.00 0.00 0.00 71 1054.4
20260904174308 84 160 3.0 8.0 0.00 0.00 0.00 70 1054.4
20260904174256 84 159 3.0 8.0 0.00 0.00 0.00 70 1054.5
20260904174032 84 117 3.0 8.0 0.00 0.00 0.00 70 1054.5
20260904174020 84 113 3.0 8.0 0.00 0.00 0.00 70 1054.4
20260904174008 84 114 3.0 8.0 0.00 0.00 0.00 70 1054.4
20260904173729 85 166 3.0 8.0 0.00 0.00 0.00 69 1054.4
20260904173409 85 139 3.0 8.0 0.00 0.00 0.00 69 1054.4
20260904173309 85 174 2.0 7.0 0.00 0.00 0.00 69 1054.4
20260904173209 85 173 2.0 7.0 0.00 0.00 0.00 69 1054.4
20260904173107 85 179 2.0 7.0 0.00 0.00 0.00 69 1054.4
20260904173006 85 170 2.0 7.0 0.00 0.00 0.00 69 1054.4
20260904172904 85 213 2.0 7.0 0.00 0.00 0.00 69 1054.3
20260904172807 85 212 2.0 7.0 0.00 0.00 0.00 69 1054.4
20260904172721 85 160 2.0 7.0 0.00 0.00 0.00 69 1054.3
20260904172605 85 177 2.0 7.0 0.00 0.00 0.00 68 1054.3
20260904172530 85 178 2.0 5.0 0.00 0.00 0.00 68 1054.3
20260904172504 85 177 2.0 5.0 0.00 0.00 0.00 68 1054.2
20260904172404 85 177 2.0 5.0 0.00 0.00 0.00 68 1054.2
20260904172305 85 177 3.0 6.0 0.00 0.00 0.00 68 1054.2
20260904172205 85 177 3.0 8.0 0.00 0.00 0.00 68 1054.2
20260904172103 85 193 3.0 8.0 0.00 0.00 0.00 68 1054.2
20260904172052 85 204 3.0 8.0 0.00 0.00 0.00 68 1054.2
20260904172036 85 204 3.0 8.0 0.00 0.00 0.00 68 1054.2
20260904172023 85 209 3.0 8.0 0.00 0.00 0.00 68 1054.1
20260904171656 85 209 3.0 8.0 0.00 0.00 0.00 68 1054.2
20260904171557 85 168 3.0 10.0 0.00 0.00 0.00 68 1054.2
20260904171530 85 232 3.0 10.0 0.00 0.00 0.00 68 1054.2
20260904171456 85 247 3.0 10.0 0.00 0.00 0.00 67 1054.2
20260904171356 85 167 3.0 10.0 0.00 0.00 0.00 67 1054.2
20260904171257 85 157 4.0 10.0 0.00 0.00 0.00 67 1054.2
20260904171156 85 158 4.0 10.0 0.00 0.00 0.00 67 1054.2
20260904171102 85 164 4.0 10.0 0.00 0.00 0.00 67 1054.1
20260904171027 85 162 4.0 10.0 0.00 0.00 0.00 67 1054.1
20260904170954 85 162 4.0 10.0 0.00 0.00 0.00 67 1054.2
20260904170854 85 181 4.0 10.0 0.00 0.00 0.00 67 1054.2
20260904170754 85 151 4.0 10.0 0.00 0.00 0.00 67 1054.2
20260904170654 85 152 4.0 10.0 0.00 0.00 0.00 66 1054.2
20260904170554 85 172 4.0 10.0 0.00 0.00 0.00 66 1054.2
20260904170537 85 175 4.0 10.0 0.00 0.00 0.00 66 1054.2
20260904170530 85 175 4.0 10.0 0.00 0.00 0.00 66 1054.2
20260904170520 86 143 4.0 10.0 0.00 0.00 0.00 66 1054.1
20260904170506 86 225 4.0 10.0 0.00 0.00 0.00 66 1054.1
20260904170455 86 116 4.0 10.0 0.00 0.00 0.00 65 1054.1
20260904170446 86 147 4.0 10.0 0.00 0.00 0.00 65 1054.1
20260904170217 86 129 4.0 10.0 0.00 0.00 0.00 65 1054.1
20260904165946 86 196 3.0 11.0 0.00 0.00 0.00 64 1054.0
20260904165931 87 146 3.0 11.0 0.00 0.00 0.00 64 1054.0
20260904165923 87 199 3.0 11.0 0.00 0.00 0.00 64 1054.0
20260904165340 87 165 3.0 11.0 0.00 0.00 0.00 64 1054.0
20260904165241 87 200 3.0 11.0 0.00 0.00 0.00 64 1054.0
20260904165138 87 69 3.0 11.0 0.00 0.00 0.00 64 1054.0
20260904165035 87 145 3.0 11.0 0.00 0.00 0.00 63 1054.0
20260904165007 87 131 3.0 11.0 0.00 0.00 0.00 63 1053.9
20260904164934 87 214 3.0 11.0 0.00 0.00 0.00 63 1053.9
20260904164834 87 158 3.0 10.0 0.00 0.00 0.00 64 1054.0
20260904164734 87 146 3.0 10.0 0.00 0.00 0.00 63 1054.0
20260904164711 87 145 3.0 10.0 0.00 0.00 0.00 64 1054.0
20260904164702 87 162 3.0 10.0 0.00 0.00 0.00 64 1054.0
20260904164653 87 252 4.0 10.0 0.00 0.00 0.00 64 1054.0
20260904164333 87 243 3.0 10.0 0.00 0.00 0.00 64 1054.0
20260904164255 87 238 4.0 10.0 0.00 0.00 0.00 63 1054.0
20260904164245 87 239 4.0 10.0 0.00 0.00 0.00 64 1054.0
20260904164231 87 174 3.0 7.0 0.00 0.00 0.00 64 1054.0
20260904164221 87 208 4.0 7.0 0.00 0.00 0.00 64 1054.0
20260904163957 87 145 4.0 7.0 0.00 0.00 0.00 63 1053.9
20260904163631 87 151 3.0 7.0 0.00 0.00 0.00 63 1054.0
20260904163548 87 228 3.0 7.0 0.00 0.00 0.00 63 1054.0
20260904163535 87 98 3.0 7.0 0.00 0.00 0.00 63 1053.9
20260904163529 87 183 3.0 7.0 0.00 0.00 0.00 63 1053.9
20260904163520 87 213 3.0 7.0 0.00 0.00 0.00 63 1054.0
20260904163506 87 127 4.0 9.0 0.00 0.00 0.00 63 1053.9
20260904163457 87 183 4.0 9.0 0.00 0.00 0.00 63 1054.0
20260904162950 87 185 4.0 10.0 0.00 0.00 0.00 63 1053.9
20260904162942 87 193 4.0 10.0 0.00 0.00 0.00 62 1053.9
20260904162618 87 191 4.0 10.0 0.00 0.00 0.00 62 1054.0
20260904162517 87 194 4.0 10.0 0.00 0.00 0.00 62 1053.9
20260904162506 87 172 4.0 10.0 0.00 0.00 0.00 62 1053.9
20260904162417 87 172 4.0 10.0 0.00 0.00 0.00 62 1054.0
20260904162330 87 212 3.0 10.0 0.00 0.00 0.00 63 1053.9
20260904162320 87 164 3.0 10.0 0.00 0.00 0.00 62 1053.9
20260904162311 87 162 4.0 10.0 0.00 0.00 0.00 62 1053.9
20260904162256 87 135 3.0 8.0 0.00 0.00 0.00 62 1054.0
20260904162030 87 122 3.0 8.0 0.00 0.00 0.00 62 1053.9
20260904161746 87 222 3.0 8.0 0.00 0.00 0.00 62 1053.9
20260904161737 87 218 3.0 8.0 0.00 0.00 0.00 62 1053.9
20260904161508 87 174 3.0 8.0 0.00 0.00 0.00 61 1053.9
20260904161406 87 172 3.0 8.0 0.00 0.00 0.00 61 1053.9
20260904161306 87 170 3.0 10.0 0.00 0.00 0.00 61 1053.9
20260904161206 87 167 4.0 10.0 0.00 0.00 0.00 62 1053.9
20260904161104 87 200 4.0 10.0 0.00 0.00 0.00 62 1053.9
20260904161004 87 199 4.0 10.0 0.00 0.00 0.00 62 1054.0
20260904160904 87 221 4.0 10.0 0.00 0.00 0.00 62 1054.0
20260904160825 87 230 4.0 10.0 0.00 0.00 0.00 62 1053.9
20260904160815 87 168 4.0 12.0 0.00 0.00 0.00 62 1053.9
20260904160806 87 183 4.0 12.0 0.00 0.00 0.00 62 1053.9
20260904160744 87 110 4.0 12.0 0.00 0.00 0.00 62 1054.0
20260904160204 87 197 4.0 12.0 0.00 0.00 0.00 62 1054.0
20260904160103 87 190 4.0 12.0 0.00 0.00 0.00 62 1053.9
20260904160043 87 217 4.0 12.0 0.00 0.00 0.00 62 1053.9
20260904160038 87 219 4.0 12.0 0.00 0.00 0.00 62 1053.9
20260904160030 87 184 4.0 12.0 0.00 0.00 0.00 62 1054.0
20260904155703 87 151 4.0 11.0 0.00 0.00 0.00 62 1053.9
20260904155600 87 99 4.0 11.0 0.00 0.00 0.00 62 1054.0
20260904155504 87 179 5.0 11.0 0.00 0.00 0.00 62 1053.9
20260904155458 87 161 5.0 11.0 0.00 0.00 0.00 62 1053.9
20260904155400 87 161 5.0 11.0 0.00 0.00 0.00 62 1053.9
20260904155258 87 162 5.0 11.0 0.00 0.00 0.00 63 1053.9
20260904155235 87 137 5.0 11.0 0.00 0.00 0.00 63 1053.9
20260904155226 87 104 5.0 11.0 0.00 0.00 0.00 63 1054.0
20260904155212 87 213 5.0 11.0 0.00 0.00 0.00 62 1054.0
20260904154857 87 219 5.0 11.0 0.00 0.00 0.00 63 1054.0
20260904154754 87 198 5.0 9.0 0.00 0.00 0.00 63 1054.0